IW0UWF-4 Weather Reports


time (UTC)temp
F
wind
direction
speed
knots
gust
knots
rain 1hr
in
rain 24hr
in
rain mn
in
humidity
%
barometer
mb
20260507174903 57 118 0.9 2.6 0.02 0.02 0.02 84 1004.1
20260507174803 57 118 0.9 2.6 0.02 0.02 0.02 84 1004.1
20260507174703 57 121 0.9 2.6 0.02 0.02 0.02 84 1004.0
20260507174603 57 132 0.9 2.6 0.02 0.02 0.02 83 1004.0
20260507174503 57 138 0.9 2.6 0.02 0.02 0.02 83 1004.0
20260507174404 57 142 0.9 2.6 0.02 0.02 0.02 83 1004.1
20260507174304 57 151 0.9 3.5 0.02 0.02 0.02 83 1004.0
20260507174204 57 148 0.9 3.5 0.02 0.02 0.02 83 1004.1
20260507174104 57 146 0.9 3.5 0.02 0.02 0.02 83 1004.0
20260507174004 57 144 0.9 3.5 0.02 0.02 0.02 82 1004.1
20260507173904 57 147 0.9 3.5 0.02 0.02 0.02 82 1004.1
20260507173804 57 147 0.9 3.5 0.02 0.02 0.02 82 1004.0
20260507173704 57 146 0.9 3.5 0.02 0.02 0.02 82 1004.0
20260507173604 57 142 0.9 3.5 0.02 0.02 0.02 82 1004.0
20260507173504 57 138 0.9 3.5 0.02 0.02 0.02 82 1004.0
20260507173404 58 138 0.9 3.5 0.02 0.02 0.02 81 1004.0
20260507173304 58 142 0.9 3.5 0.02 0.02 0.02 81 1004.1
20260507173204 58 164 0.0 1.7 0.02 0.02 0.02 81 1004.1
20260507173103 58 180 0.0 1.7 0.02 0.02 0.02 81 1004.1
20260507173004 58 180 0.0 1.7 0.02 0.02 0.02 81 1004.1
20260507172903 58 0 0.0 0.0 0.02 0.02 0.02 81 1004.1
20260507172803 58 0 0.0 0.0 0.02 0.02 0.02 81 1004.1
20260507172703 58 0 0.0 0.0 0.02 0.02 0.02 80 1004.1
20260507172603 58 149 0.0 1.7 0.02 0.02 0.02 80 1004.1
20260507172503 58 149 0.0 1.7 0.02 0.02 0.02 80 1004.2
20260507172403 58 149 0.0 1.7 0.02 0.02 0.02 80 1004.1
20260507172307 58 149 0.0 1.7 0.02 0.02 0.02 80 1004.1
20260507172203 58 150 0.0 1.7 0.02 0.02 0.02 80 1004.0
20260507172103 58 150 0.0 1.7 0.02 0.02 0.02 80 1004.2
20260507172003 58 150 0.9 1.7 0.02 0.02 0.02 80 1004.3
20260507171704 58 150 0.0 1.7 0.02 0.02 0.02 79 1004.2
20260507171604 58 149 0.0 1.7 0.02 0.02 0.02 79 1004.1
20260507171504 58 140 0.9 1.7 0.02 0.02 0.02 78 1004.3
20260507171404 58 142 0.9 1.7 0.02 0.02 0.02 78 1004.2
20260507171304 58 149 0.9 1.7 0.02 0.02 0.02 78 1004.2
20260507171204 58 151 0.9 1.7 0.02 0.02 0.02 77 1004.1
20260507171103 58 151 0.9 2.6 0.02 0.02 0.02 77 1004.1
20260507171003 58 156 0.9 2.6 0.02 0.02 0.02 77 1004.2
20260507170903 58 145 0.9 3.5 0.02 0.02 0.02 76 1004.2
20260507170803 58 148 1.7 3.5 0.02 0.02 0.02 76 1004.2
20260507170703 58 145 1.7 3.5 0.02 0.02 0.02 76 1004.1
20260507170603 58 143 1.7 3.5 0.02 0.02 0.02 76 1004.1
20260507170503 59 143 1.7 3.5 0.02 0.02 0.02 75 1004.2
20260507170403 59 140 1.7 3.5 0.02 0.02 0.02 75 1004.2
20260507170303 59 139 1.7 3.5 0.02 0.02 0.02 75 1004.2
20260507170203 59 146 2.6 7.0 0.02 0.02 0.02 74 1004.2
20260507170103 59 165 2.6 7.0 0.02 0.02 0.02 74 1004.3
20260507170004 59 170 2.6 7.0 0.02 0.02 0.02 74 1004.3
20260507165904 59 180 2.6 7.0 0.02 0.02 0.02 74 1004.3
20260507165804 60 183 2.6 7.0 0.02 0.02 0.02 73 1004.3
20260507165704 60 181 3.5 7.0 0.02 0.02 0.02 73 1004.3
20260507165605 60 177 3.5 7.0 0.02 0.02 0.02 73 1004.2
20260507165504 60 179 3.5 7.0 0.01 0.01 0.01 73 1004.2
20260507165404 60 175 4.3 7.0 0.01 0.01 0.01 72 1004.3
20260507165306 60 175 4.3 7.0 0.00 0.00 0.00 72 1004.2
20260507165204 61 174 4.3 7.0 0.00 0.00 0.00 72 1004.3
20260507165105 61 164 3.5 7.0 0.00 0.00 0.00 72 1004.3
20260507165004 61 161 3.5 6.1 0.00 0.00 0.00 71 1004.4
20260507164903 61 155 3.5 6.1 0.00 0.00 0.00 71 1004.2
20260507164803 61 148 3.5 6.1 0.00 0.00 0.00 71 1004.3
20260507164703 61 144 3.5 6.1 0.00 0.00 0.00 71 1004.5
20260507164603 61 146 3.5 6.1 0.00 0.00 0.00 70 1004.2
20260507164504 62 139 3.5 6.1 0.00 0.00 0.00 70 1004.2
20260507164403 62 139 3.5 5.2 0.00 0.00 0.00 70 1004.2
20260507164303 62 137 3.5 5.2 0.00 0.00 0.00 70 1004.2
20260507164203 62 136 3.5 5.2 0.00 0.00 0.00 69 1004.2
20260507164103 62 139 3.5 5.2 0.00 0.00 0.00 68 1004.2
20260507164003 62 136 2.6 5.2 0.00 0.00 0.00 68 1004.3
20260507163904 62 138 2.6 5.2 0.00 0.00 0.00 67 1004.2
20260507163804 62 144 2.6 5.2 0.00 0.00 0.00 66 1004.4
20260507163704 62 149 2.6 3.5 0.00 0.00 0.00 66 1004.3
20260507163604 62 152 2.6 3.5 0.00 0.00 0.00 65 1004.4
20260507163504 62 156 2.6 3.5 0.00 0.00 0.00 65 1004.3
20260507163404 62 155 2.6 3.5 0.00 0.00 0.00 64 1004.2
20260507163304 62 160 2.6 3.5 0.00 0.00 0.00 63 1004.4
20260507163204 62 156 2.6 3.5 0.00 0.00 0.00 63 1004.2
20260507163103 62 156 2.6 3.5 0.00 0.00 0.00 62 1004.4
20260507163004 62 160 2.6 3.5 0.00 0.00 0.00 61 1004.2
20260507162903 62 163 2.6 3.5 0.00 0.00 0.00 61 1004.3
20260507162803 62 164 2.6 3.5 0.00 0.00 0.00 61 1004.4
20260507162703 62 167 2.6 3.5 0.00 0.00 0.00 60 1004.4
20260507162603 63 166 2.6 3.5 0.00 0.00 0.00 59 1004.3
20260507162503 63 164 1.7 3.5 0.00 0.00 0.00 58 1004.3
20260507162403 63 177 1.7 2.6 0.00 0.00 0.00 57 1004.3
20260507162306 63 176 1.7 2.6 0.00 0.00 0.00 57 1004.3
20260507162203 63 190 1.7 1.7 0.00 0.00 0.00 55 1004.1
20260507162109 63 185 1.7 1.7 0.00 0.00 0.00 55 1004.0
20260507162003 63 179 1.7 2.6 0.00 0.00 0.00 55 1004.1
20260507161704 63 178 1.7 2.6 0.00 0.00 0.00 54 1004.1
20260507161604 63 178 1.7 2.6 0.00 0.00 0.00 54 1004.1
20260507161504 63 178 1.7 2.6 0.00 0.00 0.00 54 1004.1
20260507161406 63 178 1.7 2.6 0.00 0.00 0.00 53 1003.9
20260507161204 63 180 1.7 2.6 0.00 0.00 0.00 53 1004.2
20260507161104 63 180 1.7 2.6 0.00 0.00 0.00 52 1004.2
20260507161004 63 180 1.7 2.6 0.00 0.00 0.00 52 1004.1
20260507160904 64 180 1.7 2.6 0.00 0.00 0.00 49 1004.2
20260507160803 64 180 1.7 2.6 0.00 0.00 0.00 48 1004.2
20260507160703 64 178 1.7 3.5 0.00 0.00 0.00 48 1004.4
20260507160603 64 172 1.7 3.5 0.00 0.00 0.00 45 1004.3
20260507160503 64 161 1.7 3.5 0.00 0.00 0.00 45 1004.3
20260507160403 64 149 1.7 3.5 0.00 0.00 0.00 45 1004.3
20260507160303 64 136 1.7 3.5 0.00 0.00 0.00 45 1004.2
20260507160203 64 137 1.7 3.5 0.00 0.00 0.00 45 1004.3
20260507160003 64 126 2.6 4.3 0.00 0.00 0.00 45 1004.4
20260507155903 64 131 2.6 4.3 0.00 0.00 0.00 45 1004.3
20260507155803 64 122 3.5 4.3 0.00 0.00 0.00 44 1004.2
20260507155704 64 130 3.5 4.3 0.00 0.00 0.00 44 1004.1
20260507155604 64 124 3.5 4.3 0.00 0.00 0.00 44 1004.2
20260507155504 64 129 3.5 4.3 0.00 0.00 0.00 43 1004.2
20260507155404 64 136 3.5 4.3 0.00 0.00 0.00 43 1004.2
20260507155306 64 147 3.5 4.3 0.00 0.00 0.00 43 1004.2
20260507155204 64 140 3.5 4.3 0.00 0.00 0.00 43 1004.2
20260507155104 64 135 3.5 4.3 0.00 0.00 0.00 42 1004.2
20260507155004 64 146 2.6 3.5 0.00 0.00 0.00 42 1004.2
20260507154903 64 138 2.6 3.5 0.00 0.00 0.00 42 1004.0
20260507154803 64 141 2.6 3.5 0.00 0.00 0.00 42 1004.2
20260507154704 64 142 2.6 3.5 0.00 0.00 0.00 42 1004.2
20260507154603 64 157 2.6 3.5 0.00 0.00 0.00 42 1004.2
20260507154504 64 174 2.6 3.5 0.00 0.00 0.00 42 1004.3
20260507154403 64 202 1.7 3.5 0.00 0.00 0.00 42 1004.2
20260507154303 64 246 1.7 3.5 0.00 0.00 0.00 42 1004.2
20260507154203 64 305 1.7 3.5 0.00 0.00 0.00 42 1004.2
20260507154103 64 334 1.7 3.5 0.00 0.00 0.00 42 1004.2
20260507154003 64 330 1.7 3.5 0.00 0.00 0.00 42 1004.2
20260507153903 64 157 1.7 3.5 0.00 0.00 0.00 43 1004.0
20260507153804 64 140 1.7 3.5 0.00 0.00 0.00 43 1004.2
20260507153704 64 113 1.7 3.5 0.00 0.00 0.00 43 1004.2
20260507153604 64 121 1.7 3.5 0.00 0.00 0.00 43 1004.3
20260507153504 64 134 1.7 3.5 0.00 0.00 0.00 43 1004.2
20260507153404 64 142 1.7 3.5 0.00 0.00 0.00 43 1004.2
20260507153304 64 152 2.6 3.5 0.00 0.00 0.00 43 1004.2
20260507153204 64 164 2.6 3.5 0.00 0.00 0.00 44 1004.2
20260507153103 64 149 2.6 3.5 0.00 0.00 0.00 44 1004.2
20260507153004 65 140 2.6 3.5 0.00 0.00 0.00 44 1004.2
20260507152903 65 133 2.6 3.5 0.00 0.00 0.00 44 1004.4
20260507152803 65 143 2.6 3.5 0.00 0.00 0.00 44 1004.2
20260507152703 65 148 2.6 3.5 0.00 0.00 0.00 45 1004.1
20260507152603 65 152 2.6 3.5 0.00 0.00 0.00 46 1004.2
20260507152503 65 142 2.6 3.5 0.00 0.00 0.00 46 1004.1
20260507152403 65 134 2.6 4.3 0.00 0.00 0.00 46 1004.2
20260507152306 65 112 2.6 4.3 0.00 0.00 0.00 47 1004.2
20260507152203 65 106 3.5 4.3 0.00 0.00 0.00 48 1004.3
20260507152103 65 129 3.5 4.3 0.00 0.00 0.00 49 1004.3
20260507152003 65 157 2.6 4.3 0.00 0.00 0.00 50 1004.3
20260507151703 65 167 2.6 4.3 0.00 0.00 0.00 52 1004.2
20260507151603 65 169 2.6 4.3 0.00 0.00 0.00 53 1004.1
20260507151503 65 168 2.6 4.3 0.00 0.00 0.00 53 1004.1
20260507151403 65 168 2.6 4.3 0.00 0.00 0.00 54 1004.1
20260507151304 65 154 1.7 3.5 0.00 0.00 0.00 54 1004.0
20260507151204 65 147 1.7 3.5 0.00 0.00 0.00 55 1004.1
20260507151104 65 151 0.9 3.5 0.00 0.00 0.00 56 1004.0
20260507151004 65 160 0.9 3.5 0.00 0.00 0.00 58 1003.9
20260507150904 65 154 0.9 1.7 0.00 0.00 0.00 59 1003.9
20260507150804 65 171 0.9 1.7 0.00 0.00 0.00 60 1003.9
20260507150704 65 185 0.9 1.7 0.00 0.00 0.00 60 1004.0
20260507150604 65 195 0.9 1.7 0.00 0.00 0.00 63 1003.9
20260507150504 65 189 0.9 1.7 0.00 0.00 0.00 63 1003.9
20260507150404 65 181 0.9 1.7 0.00 0.00 0.00 63 1004.0
20260507150304 65 179 1.7 3.5 0.00 0.00 0.00 63 1004.0
20260507150204 65 182 1.7 3.5 0.00 0.00 0.00 63 1004.0
20260507150103 65 185 1.7 4.3 0.00 0.00 0.00 63 1004.0
20260507150004 65 174 2.6 4.3 0.00 0.00 0.00 63 1003.9
20260507145903 65 166 2.6 4.3 0.00 0.00 0.00 63 1003.9
20260507145803 64 155 2.6 4.3 0.00 0.00 0.00 64 1004.2
20260507145703 64 152 2.6 4.3 0.00 0.00 0.00 64 1003.9
20260507145603 64 148 2.6 4.3 0.00 0.00 0.00 64 1004.0
20260507145503 64 145 2.6 4.3 0.00 0.00 0.00 64 1003.9
20260507145403 64 160 2.6 4.3 0.00 0.00 0.00 65 1003.8
20260507145306 64 163 2.6 4.3 0.00 0.00 0.00 66 1004.0
20260507145203 64 164 2.6 4.3 0.00 0.00 0.00 66 1003.9
20260507145103 64 138 2.6 4.3 0.00 0.00 0.00 66 1004.0
20260507145003 64 156 1.7 2.6 0.00 0.00 0.00 67 1003.9
20260507144903 64 172 1.7 3.5 0.00 0.00 0.00 68 1004.0
20260507144804 64 171 2.6 3.5 0.00 0.00 0.00 68 1004.0
20260507144704 64 171 1.7 3.5 0.00 0.00 0.00 68 1004.1
20260507144604 64 167 1.7 3.5 0.00 0.00 0.00 69 1004.1
20260507144504 64 176 1.7 3.5 0.00 0.00 0.00 69 1004.1
20260507144404 64 176 2.6 3.5 0.00 0.00 0.00 69 1004.1
20260507144304 64 168 1.7 3.5 0.00 0.00 0.00 69 1004.1
20260507144204 64 157 1.7 3.5 0.00 0.00 0.00 69 1004.1
20260507144104 64 166 1.7 3.5 0.00 0.00 0.00 69 1004.2
20260507144004 64 171 1.7 3.5 0.00 0.00 0.00 69 1004.1
20260507143904 64 168 1.7 3.5 0.00 0.00 0.00 69 1004.1
20260507143804 64 172 1.7 3.5 0.00 0.00 0.00 69 1004.2
20260507143704 64 172 0.9 3.5 0.00 0.00 0.00 69 1004.2
20260507143604 64 173 0.9 3.5 0.00 0.00 0.00 69 1004.2
20260507143503 64 170 0.9 3.5 0.00 0.00 0.00 69 1004.1
20260507143403 64 162 0.9 2.6 0.00 0.00 0.00 69 1004.1
20260507143303 64 166 0.9 2.6 0.00 0.00 0.00 69 1004.3
20260507143203 64 173 0.9 2.6 0.00 0.00 0.00 69 1004.2
20260507143103 64 173 0.9 2.6 0.00 0.00 0.00 69 1004.3
20260507143003 64 173 0.9 2.6 0.00 0.00 0.00 68 1004.2
20260507142903 64 172 0.9 2.6 0.00 0.00 0.00 68 1004.3
20260507142803 64 172 0.9 2.6 0.00 0.00 0.00 68 1004.2
20260507142703 64 169 0.9 2.6 0.00 0.00 0.00 68 1004.1
20260507142603 64 169 0.9 2.6 0.00 0.00 0.00 67 1004.3
20260507142503 64 162 0.9 1.7 0.00 0.00 0.00 67 1004.3
20260507142403 64 169 0.0 1.7 0.00 0.00 0.00 67 1004.2
20260507142306 64 171 0.0 1.7 0.00 0.00 0.00 67 1004.2
20260507142204 64 172 0.0 1.7 0.00 0.00 0.00 67 1004.3
20260507142104 64 165 0.9 2.6 0.00 0.00 0.00 66 1004.1
20260507142004 64 150 0.9 2.6 0.00 0.00 0.00 66 1004.4
20260507141703 64 156 1.7 3.5 0.00 0.00 0.00 65 1004.2
20260507141603 64 148 1.7 3.5 0.00 0.00 0.00 65 1004.2
20260507141503 64 148 1.7 3.5 0.00 0.00 0.00 65 1004.2
20260507141403 64 148 1.7 3.5 0.00 0.00 0.00 65 1004.4
20260507141303 64 146 1.7 3.5 0.00 0.00 0.00 64 1004.3
20260507141203 64 148 1.7 3.5 0.00 0.00 0.00 64 1004.2
20260507141103 64 149 1.7 3.5 0.00 0.00 0.00 64 1004.4
20260507141003 64 143 0.9 3.5 0.00 0.00 0.00 63 1004.4
20260507140903 64 143 0.9 3.5 0.00 0.00 0.00 63 1004.3
20260507140803 64 141 0.9 2.6 0.00 0.00 0.00 63 1004.4
20260507140703 64 148 0.9 1.7 0.00 0.00 0.00 63 1004.4
20260507140604 64 180 0.9 1.7 0.00 0.00 0.00 62 1004.3
20260507140507 64 180 0.9 2.6 0.00 0.00 0.00 62 1004.4
20260507140404 64 180 0.9 2.6 0.00 0.00 0.00 62 1004.5
20260507140304 64 177 0.9 4.3 0.00 0.00 0.00 62 1004.3
20260507140204 64 165 1.7 4.3 0.00 0.00 0.00 61 1004.4
20260507140104 64 164 1.7 4.3 0.00 0.00 0.00 61 1004.4
20260507140004 64 161 1.7 4.3 0.00 0.00 0.00 61 1004.4
20260507135903 64 160 1.7 4.3 0.00 0.00 0.00 61 1004.4
20260507135804 64 159 2.6 4.3 0.00 0.00 0.00 60 1004.6
20260507135703 64 155 2.6 5.2 0.00 0.00 0.00 60 1004.4
20260507135604 65 151 2.6 5.2 0.00 0.00 0.00 60 1004.5
20260507135503 65 148 2.6 5.2 0.00 0.00 0.00 60 1004.6
20260507135403 65 146 2.6 5.2 0.00 0.00 0.00 59 1004.5
20260507135306 65 146 2.6 5.2 0.00 0.00 0.00 58 1004.7
20260507135203 65 147 2.6 5.2 0.00 0.00 0.00 57 1004.6
20260507135103 65 140 1.7 5.2 0.00 0.00 0.00 57 1004.5
20260507135003 65 140 1.7 5.2 0.00 0.00 0.00 56 1004.7
20260507134903 66 139 1.7 5.2 0.00 0.00 0.00 55 1004.5
20260507134803 66 137 1.7 5.2 0.00 0.00 0.00 55 1004.6
20260507134703 66 140 1.7 5.2 0.00 0.00 0.00 54 1004.6
20260507134603 66 144 1.7 3.5 0.00 0.00 0.00 54 1004.5
20260507134505 66 149 1.7 3.5 0.00 0.00 0.00 53 1004.6
20260507134404 66 139 2.6 3.5 0.00 0.00 0.00 53 1004.6
20260507134304 67 135 2.6 3.5 0.00 0.00 0.00 53 1004.7
20260507134204 67 119 2.6 3.5 0.00 0.00 0.00 53 1004.6
20260507134104 67 127 2.6 3.5 0.00 0.00 0.00 53 1004.5
20260507134004 67 128 2.6 3.5 0.00 0.00 0.00 52 1004.5
20260507133904 67 129 2.6 3.5 0.00 0.00 0.00 52 1004.6
20260507133804 68 134 2.6 3.5 0.00 0.00 0.00 52 1004.5
20260507133703 68 118 2.6 3.5 0.00 0.00 0.00 52 1004.7
20260507133604 68 121 2.6 3.5 0.00 0.00 0.00 51 1004.6
20260507133503 68 100 2.6 3.5 0.00 0.00 0.00 51 1004.6
20260507133403 68 115 2.6 3.5 0.00 0.00 0.00 51 1004.6
20260507133303 69 122 3.5 3.5 0.00 0.00 0.00 51 1004.5
20260507133203 69 123 3.5 3.5 0.00 0.00 0.00 51 1004.5
20260507133103 69 123 3.5 4.3 0.00 0.00 0.00 51 1004.6
20260507133003 69 108 3.5 5.2 0.00 0.00 0.00 51 1004.6
20260507132903 69 98 3.5 5.2 0.00 0.00 0.00 51 1004.5
20260507132803 70 88 3.5 5.2 0.00 0.00 0.00 51 1004.6
20260507132703 70 96 3.5 5.2 0.00 0.00 0.00 51 1004.6
20260507132603 70 85 3.5 5.2 0.00 0.00 0.00 51 1004.5
20260507132504 70 99 3.5 5.2 0.00 0.00 0.00 51 1004.5
20260507132404 70 96 4.3 5.2 0.00 0.00 0.00 52 1004.6
20260507132307 70 78 4.3 5.2 0.00 0.00 0.00 52 1004.6
20260507132204 70 106 4.3 5.2 0.00 0.00 0.00 52 1004.7
20260507132104 70 112 4.3 5.2 0.00 0.00 0.00 51 1004.6
20260507132004 70 145 3.5 5.2 0.00 0.00 0.00 51 1004.7
20260507131703 70 102 3.5 4.3 0.00 0.00 0.00 51 1004.6
20260507131603 70 119 3.5 4.3 0.00 0.00 0.00 51 1004.6
20260507131503 70 139 3.5 4.3 0.00 0.00 0.00 51 1004.7
20260507131403 70 157 3.5 3.5 0.00 0.00 0.00 51 1004.7
20260507131303 70 161 3.5 3.5 0.00 0.00 0.00 51 1004.7
20260507131203 70 175 3.5 3.5 0.00 0.00 0.00 51 1004.5
20260507131103 70 185 3.5 3.5 0.00 0.00 0.00 51 1004.7
20260507131003 69 191 3.5 3.5 0.00 0.00 0.00 51 1004.7
20260507130904 69 184 3.5 3.5 0.00 0.00 0.00 51 1004.7
20260507130804 69 181 3.5 3.5 0.00 0.00 0.00 51 1004.8
20260507130705 69 168 3.5 3.5 0.00 0.00 0.00 51 1004.7
20260507130604 69 169 3.5 3.5 0.00 0.00 0.00 51 1004.8
20260507130504 69 174 3.5 4.3 0.00 0.00 0.00 51 1004.8
20260507130404 69 175 3.5 4.3 0.00 0.00 0.00 51 1004.8
20260507130304 69 176 3.5 4.3 0.00 0.00 0.00 51 1004.8
20260507130204 69 188 3.5 4.3 0.00 0.00 0.00 51 1004.8
20260507130103 69 221 3.5 4.3 0.00 0.00 0.00 51 1004.8
20260507130004 69 317 3.5 5.2 0.00 0.00 0.00 51 1004.8
20260507125904 69 321 3.5 5.2 0.00 0.00 0.00 51 1004.9
20260507125803 69 283 3.5 5.2 0.00 0.00 0.00 52 1004.8
20260507125703 69 278 3.5 5.2 0.00 0.00 0.00 52 1004.9
20260507125603 69 267 3.5 5.2 0.00 0.00 0.00 52 1004.9
20260507125503 68 299 3.5 5.2 0.00 0.00 0.00 52 1004.6
20260507125403 68 303 3.5 5.2 0.00 0.00 0.00 52 1004.7
20260507125306 68 301 3.5 5.2 0.00 0.00 0.00 52 1004.8
20260507125203 68 305 3.5 5.2 0.00 0.00 0.00 52 1004.8
20260507125103 67 303 3.5 5.2 0.00 0.00 0.00 53 1004.6
20260507125003 67 280 3.5 3.5 0.00 0.00 0.00 53 1004.7
20260507124903 67 269 3.5 3.5 0.00 0.00 0.00 53 1004.7
20260507124803 67 275 3.5 3.5 0.00 0.00 0.00 53 1004.7
20260507124704 67 287 3.5 3.5 0.00 0.00 0.00 53 1004.8
20260507124604 67 303 3.5 6.1 0.00 0.00 0.00 53 1004.8
20260507124504 66 293 3.5 6.1 0.00 0.00 0.00 53 1004.8
20260507124404 66 295 4.3 6.1 0.00 0.00 0.00 53 1004.8
20260507124304 66 301 4.3 6.1 0.00 0.00 0.00 53 1004.8
20260507124204 66 298 4.3 6.1 0.00 0.00 0.00 54 1004.9
20260507124104 66 292 4.3 6.1 0.00 0.00 0.00 54 1005.0
20260507124004 66 297 4.3 6.1 0.00 0.00 0.00 54 1004.9
20260507123903 66 298 4.3 6.1 0.00 0.00 0.00 54 1005.0
20260507123804 65 298 4.3 6.1 0.00 0.00 0.00 54 1005.1
20260507123703 65 288 5.2 6.1 0.00 0.00 0.00 54 1005.0
20260507123603 65 286 5.2 6.1 0.00 0.00 0.00 54 1005.0
20260507123503 65 285 5.2 6.1 0.00 0.00 0.00 54 1005.0
20260507123403 65 285 4.3 6.1 0.00 0.00 0.00 54 1005.0
20260507123303 65 277 4.3 6.1 0.00 0.00 0.00 53 1005.2
20260507123203 65 283 5.2 6.1 0.00 0.00 0.00 53 1005.1
20260507123103 65 286 5.2 6.1 0.00 0.00 0.00 53 1005.1
20260507123003 65 287 5.2 6.1 0.00 0.00 0.00 53 1005.1
20260507122903 65 288 5.2 6.1 0.00 0.00 0.00 53 1005.2
20260507122803 64 291 5.2 6.1 0.00 0.00 0.00 53 1005.2
20260507122705 64 297 5.2 6.1 0.00 0.00 0.00 53 1005.1
20260507122604 64 294 5.2 6.1 0.00 0.00 0.00 53 1005.1
20260507122504 64 299 5.2 6.1 0.00 0.00 0.00 53 1005.1
20260507122404 64 292 5.2 6.1 0.00 0.00 0.00 53 1005.2
20260507122307 64 309 5.2 6.1 0.00 0.00 0.00 53 1005.3
20260507122204 64 308 5.2 6.1 0.00 0.00 0.00 53 1005.2
20260507122104 64 309 4.3 6.1 0.00 0.00 0.00 53 1005.1
20260507122004 64 268 4.3 6.1 0.00 0.00 0.00 53 1005.3
20260507121704 64 292 4.3 6.1 0.00 0.00 0.00 53 1005.3
20260507121604 64 290 4.3 6.1 0.00 0.00 0.00 53 1005.2
20260507121504 64 283 4.3 6.1 0.00 0.00 0.00 53 1005.2
20260507121403 64 276 4.3 6.1 0.00 0.00 0.00 52 1005.3
20260507121303 64 270 4.3 6.1 0.00 0.00 0.00 52 1005.3
20260507121203 65 267 4.3 5.2 0.00 0.00 0.00 52 1005.3
20260507121103 65 263 3.5 5.2 0.00 0.00 0.00 52 1005.3
20260507121003 65 255 3.5 5.2 0.00 0.00 0.00 52 1005.2
20260507120903 65 260 2.6 4.3 0.00 0.00 0.00 52 1005.3
20260507120803 65 261 2.6 4.3 0.00 0.00 0.00 52 1005.2
20260507120703 65 253 1.7 4.3 0.00 0.00 0.00 52 1005.1
20260507120603 65 244 1.7 4.3 0.00 0.00 0.00 52 1005.1
20260507120504 65 247 1.7 4.3 0.00 0.00 0.00 52 1005.2
20260507120404 65 247 1.7 4.3 0.00 0.00 0.00 52 1005.3
20260507120304 65 237 1.7 4.3 0.00 0.00 0.00 51 1005.1
20260507120204 65 252 1.7 3.5 0.00 0.00 0.00 51 1005.3
20260507120104 65 252 1.7 3.5 0.00 0.00 0.00 51 1005.2
20260507120004 65 253 1.7 3.5 0.00 0.00 0.00 51 1005.2
20260507115904 65 245 1.7 3.5 0.00 0.00 0.00 51 1005.3
20260507115804 66 244 1.7 3.5 0.00 0.00 0.00 51 1005.2
20260507115704 66 243 1.7 3.5 0.00 0.00 0.00 51 1005.1
20260507115604 66 240 1.7 3.5 0.00 0.00 0.00 51 1005.1
20260507115504 66 241 1.7 3.5 0.00 0.00 0.00 51 1005.2
20260507115404 66 238 1.7 3.5 0.00 0.00 0.00 51 1005.1
20260507115307 66 241 0.9 3.5 0.00 0.00 0.00 51 1005.0
20260507115204 67 238 0.9 3.5 0.00 0.00 0.00 51 1005.2
20260507115104 67 224 0.9 2.6 0.00 0.00 0.00 52 1005.2
20260507115003 67 180 0.0 2.6 0.00 0.00 0.00 52 1005.1
20260507114903 67 180 0.0 0.9 0.00 0.00 0.00 52 1005.2
20260507114803 67 0 0.0 0.0 0.00 0.00 0.00 52 1005.0
20260507114704 67 0 0.0 0.0 0.00 0.00 0.00 52 1005.2
20260507114603 68 0 0.0 0.0 0.00 0.00 0.00 52 1005.1
20260507114503 68 0 0.0 0.0 0.00 0.00 0.00 52 1005.2
20260507114403 68 0 0.0 0.0 0.00 0.00 0.00 52 1005.2
20260507114303 68 0 0.0 0.0 0.00 0.00 0.00 52 1005.2
20260507114203 68 0 0.0 0.0 0.00 0.00 0.00 51 1005.0
20260507114103 68 0 0.0 0.0 0.00 0.00 0.00 51 1005.2
20260507114003 68 0 0.0 0.0 0.00 0.00 0.00 51 1005.2
20260507113903 68 218 0.0 1.7 0.00 0.00 0.00 51 1005.2
20260507113804 69 205 0.0 1.7 0.00 0.00 0.00 51 1005.2
20260507113704 69 205 0.0 1.7 0.00 0.00 0.00 51 1005.1
20260507113604 69 205 0.0 1.7 0.00 0.00 0.00 50 1005.1
20260507113504 69 205 0.0 1.7 0.00 0.00 0.00 50 1005.2
20260507113404 69 210 0.0 2.6 0.00 0.00 0.00 50 1005.2
20260507113304 69 217 0.9 2.6 0.00 0.00 0.00 50 1005.1
20260507113204 69 217 0.9 2.6 0.00 0.00 0.00 50 1005.2
20260507113104 69 217 0.9 2.6 0.00 0.00 0.00 50 1005.3
20260507113004 70 217 0.9 2.6 0.00 0.00 0.00 50 1005.4
20260507112904 70 217 0.9 2.6 0.00 0.00 0.00 50 1005.3
20260507112804 70 225 0.9 2.6 0.00 0.00 0.00 49 1005.2
20260507112704 70 225 0.9 2.6 0.00 0.00 0.00 49 1005.1
20260507112603 70 225 0.9 2.6 0.00 0.00 0.00 48 1005.3
20260507112504 70 225 0.9 2.6 0.00 0.00 0.00 48 1005.1
20260507112403 70 224 0.9 2.6 0.00 0.00 0.00 48 1005.3
20260507112306 70 217 0.0 2.6 0.00 0.00 0.00 48 1005.3
20260507112203 70 194 0.0 1.7 0.00 0.00 0.00 48 1005.2
20260507112103 70 188 0.0 1.7 0.00 0.00 0.00 48 1005.4
20260507112003 70 181 0.9 1.7 0.00 0.00 0.00 47 1005.3
20260507111703 70 235 0.9 2.6 0.00 0.00 0.00 46 1005.4
20260507111603 71 211 1.7 3.5 0.00 0.00 0.00 46 1005.3
20260507111503 71 206 1.7 3.5 0.00 0.00 0.00 46 1005.4
20260507111403 71 201 1.7 3.5 0.00 0.00 0.00 45 1005.4
20260507111303 71 198 1.7 3.5 0.00 0.00 0.00 45 1005.4
20260507111204 71 190 1.7 3.5 0.00 0.00 0.00 45 1005.3
20260507111104 71 180 1.7 3.5 0.00 0.00 0.00 45 1005.3
20260507111004 71 163 1.7 3.5 0.00 0.00 0.00 45 1005.5
20260507110904 71 153 0.9 3.5 0.00 0.00 0.00 45 1005.3
20260507110804 71 141 0.9 3.5 0.00 0.00 0.00 45 1005.5
20260507110704 71 147 0.9 3.5 0.00 0.00 0.00 45 1005.4
20260507110603 71 159 0.9 2.6 0.00 0.00 0.00 44 1005.4
20260507110503 71 157 0.9 2.6 0.00 0.00 0.00 44 1005.5
20260507110403 71 157 0.9 2.6 0.00 0.00 0.00 44 1005.4
20260507110303 71 161 0.9 2.6 0.00 0.00 0.00 44 1005.4
20260507110203 71 161 0.9 2.6 0.00 0.00 0.00 44 1005.5
20260507110103 71 162 0.9 2.6 0.00 0.00 0.00 44 1005.5
20260507110003 71 164 0.9 2.6 0.00 0.00 0.00 44 1005.5
20260507105903 71 162 0.9 2.6 0.00 0.00 0.00 44 1005.5
20260507105803 71 162 0.9 2.6 0.00 0.00 0.00 43 1005.5
20260507105703 71 157 0.9 2.6 0.00 0.00 0.00 43 1005.6
20260507105603 72 172 0.0 1.7 0.00 0.00 0.00 44 1005.5
20260507105503 72 180 0.0 1.7 0.00 0.00 0.00 43 1005.5
20260507105404 72 180 0.0 1.7 0.00 0.00 0.00 43 1005.5
20260507105306 72 180 0.0 1.7 0.00 0.00 0.00 43 1005.6
20260507105204 72 180 0.9 1.7 0.00 0.00 0.00 43 1005.4
20260507105104 72 180 0.9 1.7 0.00 0.00 0.00 43 1005.5
20260507105004 72 186 0.9 1.7 0.00 0.00 0.00 43 1005.6
20260507104904 72 191 0.9 1.7 0.00 0.00 0.00 43 1005.5
20260507104804 72 197 0.9 1.7 0.00 0.00 0.00 43 1005.6
20260507104704 72 197 0.9 1.7 0.00 0.00 0.00 43 1005.6
20260507104604 72 197 0.9 1.7 0.00 0.00 0.00 43 1005.6
20260507104504 72 197 0.9 1.7 0.00 0.00 0.00 43 1005.6
20260507104403 72 195 0.9 2.6 0.00 0.00 0.00 42 1005.7
20260507104303 72 196 0.9 2.6 0.00 0.00 0.00 42 1005.7
20260507104204 72 200 0.9 2.6 0.00 0.00 0.00 42 1005.7
20260507104103 72 212 0.9 2.6 0.00 0.00 0.00 42 1005.7
20260507104003 72 220 0.9 2.6 0.00 0.00 0.00 42 1005.7
20260507103903 72 223 1.7 3.5 0.00 0.00 0.00 42 1005.7
20260507103803 72 224 1.7 3.5 0.00 0.00 0.00 42 1005.6
20260507103703 72 224 1.7 3.5 0.00 0.00 0.00 42 1005.7
20260507103603 72 219 1.7 3.5 0.00 0.00 0.00 42 1005.7
20260507103503 72 215 1.7 3.5 0.00 0.00 0.00 42 1005.7
20260507103106 72 208 1.7 3.5 0.00 0.00 0.00 41 1005.7
20260507102904 72 191 0.9 3.5 0.00 0.00 0.00 42 1005.7
20260507102804 72 178 0.9 1.7 0.00 0.00 0.00 42 1005.7
20260507102704 72 177 0.9 1.7 0.00 0.00 0.00 42 1005.6
20260507102604 72 173 0.9 2.6 0.00 0.00 0.00 40 1005.9
20260507102504 73 168 0.9 2.6 0.00 0.00 0.00 40 1005.7
20260507102403 73 167 0.9 2.6 0.00 0.00 0.00 40 1005.7
20260507102306 73 156 0.9 2.6 0.00 0.00 0.00 40 1005.8
20260507102203 73 161 0.0 2.6 0.00 0.00 0.00 40 1005.6
20260507102103 73 161 0.9 2.6 0.00 0.00 0.00 40 1005.6
20260507102003 73 163 0.9 2.6 0.00 0.00 0.00 40 1005.6
20260507101703 72 162 1.7 4.3 0.00 0.00 0.00 39 1005.7
20260507101603 72 156 2.6 4.3 0.00 0.00 0.00 39 1005.7
20260507101503 72 162 2.6 5.2 0.00 0.00 0.00 39 1005.6
20260507101403 73 168 2.6 5.2 0.00 0.00 0.00 39 1005.6
20260507101303 73 168 2.6 5.2 0.00 0.00 0.00 38 1005.6
20260507101204 72 169 2.6 5.2 0.00 0.00 0.00 38 1005.6
20260507101103 72 170 2.6 5.2 0.00 0.00 0.00 37 1005.6
20260507101003 73 170 2.6 5.2 0.00 0.00 0.00 36 1005.7
20260507100903 73 167 2.6 5.2 0.00 0.00 0.00 36 1005.7
20260507100803 73 165 2.6 5.2 0.00 0.00 0.00 36 1005.7
20260507100703 73 170 2.6 5.2 0.00 0.00 0.00 37 1005.6
20260507100604 73 174 1.7 5.2 0.00 0.00 0.00 36 1005.6
20260507100504 74 173 1.7 3.5 0.00 0.00 0.00 38 1005.6
20260507100404 74 173 1.7 3.5 0.00 0.00 0.00 38 1005.7
20260507100304 74 174 1.7 3.5 0.00 0.00 0.00 38 1005.6
20260507100204 74 172 1.7 3.5 0.00 0.00 0.00 38 1005.6
20260507100104 74 171 2.6 3.5 0.00 0.00 0.00 38 1005.6
20260507100004 74 165 2.6 4.3 0.00 0.00 0.00 38 1005.7
20260507095904 74 164 2.6 4.3 0.00 0.00 0.00 38 1005.6
20260507095803 74 164 2.6 4.3 0.00 0.00 0.00 39 1005.6
20260507095703 74 163 2.6 4.3 0.00 0.00 0.00 40 1005.7
20260507095603 74 165 2.6 4.3 0.00 0.00 0.00 40 1005.6
20260507095503 74 166 2.6 4.3 0.00 0.00 0.00 40 1005.6
20260507095403 73 163 2.6 4.3 0.00 0.00 0.00 40 1005.7
20260507095305 73 158 2.6 4.3 0.00 0.00 0.00 40 1005.6
20260507095203 73 155 2.6 4.3 0.00 0.00 0.00 40 1005.6
20260507095103 73 152 2.6 4.3 0.00 0.00 0.00 40 1005.6
20260507095003 73 156 2.6 3.5 0.00 0.00 0.00 40 1005.4
20260507094903 73 156 1.7 3.5 0.00 0.00 0.00 40 1005.7
20260507094803 72 154 2.6 3.5 0.00 0.00 0.00 39 1005.7
20260507094704 72 155 2.6 3.5 0.00 0.00 0.00 41 1005.6
20260507094604 72 151 2.6 3.5 0.00 0.00 0.00 41 1005.5
20260507094504 72 146 2.6 3.5 0.00 0.00 0.00 41 1005.6
20260507094404 72 149 2.6 3.5 0.00 0.00 0.00 41 1005.5
20260507094304 72 153 2.6 3.5 0.00 0.00 0.00 42 1005.7
20260507094204 72 153 2.6 3.5 0.00 0.00 0.00 41 1005.6
20260507094104 72 155 2.6 3.5 0.00 0.00 0.00 41 1005.6
20260507094004 72 155 2.6 3.5 0.00 0.00 0.00 41 1005.6
20260507093904 72 155 2.6 3.5 0.00 0.00 0.00 42 1005.5
20260507093803 71 156 2.6 3.5 0.00 0.00 0.00 41 1005.5
20260507093703 71 153 2.6 3.5 0.00 0.00 0.00 41 1005.5
20260507093603 72 156 1.7 3.5 0.00 0.00 0.00 41 1005.4
20260507093503 72 159 1.7 3.5 0.00 0.00 0.00 42 1005.5
20260507093403 72 151 1.7 5.2 0.00 0.00 0.00 41 1005.4
20260507093303 72 150 1.7 5.2 0.00 0.00 0.00 42 1005.6
20260507093203 72 157 1.7 5.2 0.00 0.00 0.00 42 1005.4
20260507093103 71 160 2.6 5.2 0.00 0.00 0.00 42 1005.5
20260507093004 71 160 2.6 5.2 0.00 0.00 0.00 42 1005.5
20260507092905 71 163 1.7 5.2 0.00 0.00 0.00 42 1005.5
20260507092804 71 163 1.7 5.2 0.00 0.00 0.00 42 1005.5
20260507092704 71 164 2.6 5.2 0.00 0.00 0.00 42 1005.5
20260507092604 71 163 2.6 5.2 0.00 0.00 0.00 41 1005.6
20260507092504 71 166 2.6 5.2 0.00 0.00 0.00 41 1005.6
20260507092404 71 171 3.5 6.1 0.00 0.00 0.00 41 1005.5
20260507092306 71 173 2.6 6.1 0.00 0.00 0.00 41 1005.6
20260507092204 71 169 2.6 6.1 0.00 0.00 0.00 41 1005.6
20260507092104 71 165 2.6 6.1 0.00 0.00 0.00 41 1005.6
20260507092004 71 161 3.5 6.1 0.00 0.00 0.00 41 1005.6
20260507091704 71 153 3.5 6.1 0.00 0.00 0.00 42 1005.6
20260507091604 71 153 3.5 6.1 0.00 0.00 0.00 41 1005.5
20260507091504 71 156 3.5 6.1 0.00 0.00 0.00 41 1005.6
20260507091404 71 160 2.6 6.1 0.00 0.00 0.00 41 1005.6
20260507091304 71 158 2.6 6.1 0.00 0.00 0.00 42 1005.7
20260507091204 71 165 1.7 3.5 0.00 0.00 0.00 42 1005.8
20260507091104 71 167 1.7 3.5 0.00 0.00 0.00 43 1005.6
20260507091004 71 166 1.7 3.5 0.00 0.00 0.00 43 1005.7
20260507090903 70 165 1.7 3.5 0.00 0.00 0.00 43 1005.6
20260507090803 70 170 1.7 3.5 0.00 0.00 0.00 43 1005.6
20260507090704 70 176 1.7 3.5 0.00 0.00 0.00 43 1005.7
20260507090603 70 179 1.7 3.5 0.00 0.00 0.00 43 1005.7
20260507090503 71 178 1.7 3.5 0.00 0.00 0.00 48 1005.8
20260507090403 71 173 1.7 3.5 0.00 0.00 0.00 48 1005.6
20260507090303 71 169 1.7 3.5 0.00 0.00 0.00 48 1005.7
20260507090203 71 162 1.7 3.5 0.00 0.00 0.00 48 1005.5
20260507090103 71 161 1.7 3.5 0.00 0.00 0.00 48 1005.6
20260507090004 71 162 1.7 3.5 0.00 0.00 0.00 48 1005.7
20260507085903 71 159 2.6 3.5 0.00 0.00 0.00 48 1005.6
20260507085803 71 160 2.6 3.5 0.00 0.00 0.00 48 1005.7
20260507085703 71 159 2.6 3.5 0.00 0.00 0.00 48 1005.7
20260507085604 71 158 2.6 3.5 0.00 0.00 0.00 48 1005.7
20260507085504 71 159 2.6 3.5 0.00 0.00 0.00 48 1005.8
20260507085404 71 163 1.7 3.5 0.00 0.00 0.00 49 1005.7
20260507085306 71 164 1.7 2.6 0.00 0.00 0.00 50 1005.8
20260507085205 70 171 1.7 2.6 0.00 0.00 0.00 50 1005.6
20260507085104 70 167 1.7 3.5 0.00 0.00 0.00 50 1005.8
20260507085004 70 163 1.7 3.5 0.00 0.00 0.00 51 1005.8
20260507084904 70 161 1.7 3.5 0.00 0.00 0.00 51 1005.9
20260507084803 70 157 1.7 3.5 0.00 0.00 0.00 51 1005.7
20260507084703 70 157 1.7 3.5 0.00 0.00 0.00 51 1005.7
20260507084604 70 155 2.6 4.3 0.00 0.00 0.00 52 1005.7
20260507084503 70 152 2.6 4.3 0.00 0.00 0.00 52 1005.8
20260507084403 70 151 1.7 4.3 0.00 0.00 0.00 52 1005.8
20260507084304 70 153 1.7 4.3 0.00 0.00 0.00 51 1005.8
20260507084203 69 153 1.7 4.3 0.00 0.00 0.00 51 1005.8
20260507084104 69 159 1.7 4.3 0.00 0.00 0.00 51 1005.8
20260507084003 69 160 1.7 4.3 0.00 0.00 0.00 51 1005.7
20260507083904 69 166 1.7 4.3 0.00 0.00 0.00 51 1005.6
20260507083803 69 171 1.7 4.3 0.00 0.00 0.00 51 1005.8
20260507083703 69 171 1.7 4.3 0.00 0.00 0.00 51 1005.8
20260507083603 69 174 1.7 4.3 0.00 0.00 0.00 51 1005.6
20260507083503 69 178 1.7 2.6 0.00 0.00 0.00 53 1005.7
20260507083403 69 177 1.7 2.6 0.00 0.00 0.00 54 1005.6
20260507083303 69 175 1.7 2.6 0.00 0.00 0.00 54 1005.8
20260507083203 69 176 1.7 2.6 0.00 0.00 0.00 54 1005.7
20260507083103 69 176 1.7 2.6 0.00 0.00 0.00 54 1005.6
20260507083003 69 176 1.7 2.6 0.00 0.00 0.00 55 1005.6
20260507082903 69 175 1.7 2.6 0.00 0.00 0.00 55 1005.7
20260507082805 69 174 2.6 2.6 0.00 0.00 0.00 55 1005.7
20260507082704 69 173 2.6 2.6 0.00 0.00 0.00 55 1005.6
20260507082604 69 172 2.6 2.6 0.00 0.00 0.00 55 1005.7
20260507082504 69 170 2.6 2.6 0.00 0.00 0.00 55 1005.6
20260507082404 69 168 2.6 4.3 0.00 0.00 0.00 55 1005.6
20260507082306 69 168 1.7 4.3 0.00 0.00 0.00 55 1005.5
20260507082204 69 160 1.7 4.3 0.00 0.00 0.00 56 1005.5
20260507082104 69 151 2.6 4.3 0.00 0.00 0.00 56 1005.5
20260507082004 69 143 2.6 4.3 0.00 0.00 0.00 56 1005.6
20260507081704 68 154 3.5 4.3 0.00 0.00 0.00 54 1005.6
20260507081604 68 151 3.5 4.3 0.00 0.00 0.00 54 1005.5
20260507081504 67 148 3.5 4.3 0.00 0.00 0.00 53 1005.5
20260507081404 67 146 4.3 4.3 0.00 0.00 0.00 53 1005.4
20260507081304 67 141 3.5 4.3 0.00 0.00 0.00 53 1005.5
20260507081203 67 141 4.3 4.3 0.00 0.00 0.00 53 1005.5
20260507081103 67 141 4.3 4.3 0.00 0.00 0.00 53 1005.6
20260507081003 66 138 4.3 4.3 0.00 0.00 0.00 53 1005.3
20260507080903 66 140 4.3 4.3 0.00 0.00 0.00 53 1005.5
20260507080803 66 139 3.5 4.3 0.00 0.00 0.00 54 1005.5
20260507080703 66 141 3.5 3.5 0.00 0.00 0.00 54 1005.6
20260507080603 65 142 3.5 3.5 0.00 0.00 0.00 59 1005.5
20260507080503 65 142 3.5 3.5 0.00 0.00 0.00 59 1005.3
20260507080404 65 143 3.5 3.5 0.00 0.00 0.00 59 1005.4
20260507080304 65 143 3.5 3.5 0.00 0.00 0.00 59 1005.4
20260507080204 65 144 3.5 3.5 0.00 0.00 0.00 59 1005.3
20260507080104 65 148 2.6 3.5 0.00 0.00 0.00 59 1005.4
20260507080004 65 150 2.6 3.5 0.00 0.00 0.00 59 1005.3
20260507075904 65 150 2.6 3.5 0.00 0.00 0.00 59 1005.2
20260507075804 64 151 2.6 3.5 0.00 0.00 0.00 60 1005.3
20260507075704 64 151 2.6 3.5 0.00 0.00 0.00 60 1005.2
20260507075604 64 152 2.6 3.5 0.00 0.00 0.00 60 1005.3
20260507075504 64 157 2.6 3.5 0.00 0.00 0.00 60 1005.2
20260507075403 64 158 2.6 3.5 0.00 0.00 0.00 61 1005.2
20260507075306 64 164 2.6 3.5 0.00 0.00 0.00 61 1005.4
20260507075203 64 166 2.6 3.5 0.00 0.00 0.00 61 1005.3
20260507075104 63 163 2.6 4.3 0.00 0.00 0.00 65 1005.4
20260507075003 63 161 2.6 4.3 0.00 0.00 0.00 64 1005.2
20260507074903 63 160 2.6 4.3 0.00 0.00 0.00 64 1005.2
20260507074803 63 158 2.6 4.3 0.00 0.00 0.00 64 1005.2
20260507074703 63 161 2.6 4.3 0.00 0.00 0.00 65 1005.2
20260507074603 63 160 2.6 4.3 0.00 0.00 0.00 65 1005.2
20260507074503 63 157 2.6 4.3 0.00 0.00 0.00 65 1005.2
20260507074403 63 159 2.6 4.3 0.00 0.00 0.00 65 1005.2
20260507074303 62 154 2.6 4.3 0.00 0.00 0.00 65 1005.3
20260507074204 62 152 2.6 4.3 0.00 0.00 0.00 65 1005.3
20260507074104 62 150 2.6 3.5 0.00 0.00 0.00 65 1005.4
20260507074004 62 151 2.6 3.5 0.00 0.00 0.00 65 1005.5
20260507073904 63 148 2.6 3.5 0.00 0.00 0.00 65 1005.3
20260507073804 63 149 2.6 3.5 0.00 0.00 0.00 65 1005.4
20260507073704 63 144 2.6 3.5 0.00 0.00 0.00 65 1005.4
20260507073604 62 142 2.6 3.5 0.00 0.00 0.00 65 1005.4
20260507073504 62 142 2.6 3.5 0.00 0.00 0.00 65 1005.4
20260507073404 62 141 3.5 3.5 0.00 0.00 0.00 65 1005.4
20260507073303 62 141 3.5 3.5 0.00 0.00 0.00 65 1005.4
20260507073203 62 140 3.5 3.5 0.00 0.00 0.00 65 1005.4
20260507073104 62 139 3.5 3.5 0.00 0.00 0.00 65 1005.4
20260507073004 62 140 3.5 3.5 0.00 0.00 0.00 65 1005.4
20260507072904 62 140 3.5 3.5 0.00 0.00 0.00 65 1005.5
20260507072804 62 139 3.5 3.5 0.00 0.00 0.00 64 1005.7
20260507072703 62 140 3.5 3.5 0.00 0.00 0.00 64 1005.5
20260507072603 62 141 3.5 3.5 0.00 0.00 0.00 64 1005.5
20260507072503 62 142 3.5 3.5 0.00 0.00 0.00 64 1005.6
20260507072403 62 139 3.5 3.5 0.00 0.00 0.00 63 1005.6
20260507072306 62 141 3.5 3.5 0.00 0.00 0.00 63 1005.6
20260507072203 62 143 2.6 3.5 0.00 0.00 0.00 63 1005.6
20260507072103 62 146 2.6 3.5 0.00 0.00 0.00 63 1005.5
20260507072004 62 147 2.6 3.5 0.00 0.00 0.00 63 1005.5
20260507071704 62 156 2.6 3.5 0.00 0.00 0.00 62 1005.5
20260507071604 62 152 2.6 3.5 0.00 0.00 0.00 62 1005.5
20260507071504 62 152 3.5 5.2 0.00 0.00 0.00 62 1005.5
20260507071404 63 151 3.5 5.2 0.00 0.00 0.00 62 1005.6
20260507071304 63 148 3.5 5.2 0.00 0.00 0.00 62 1005.6
20260507071204 63 143 3.5 5.2 0.00 0.00 0.00 62 1005.6
20260507071103 63 148 3.5 5.2 0.00 0.00 0.00 62 1005.6
20260507071004 63 147 3.5 5.2 0.00 0.00 0.00 62 1005.6
20260507070903 63 143 3.5 5.2 0.00 0.00 0.00 62 1005.7
20260507070803 64 143 3.5 5.2 0.00 0.00 0.00 60 1005.5
20260507070703 64 151 3.5 5.2 0.00 0.00 0.00 60 1005.5
20260507070603 64 155 2.6 5.2 0.00 0.00 0.00 61 1005.5
20260507070503 64 154 2.6 4.3 0.00 0.00 0.00 61 1005.5
20260507070403 64 154 2.6 4.3 0.00 0.00 0.00 61 1005.5
20260507070303 65 161 2.6 4.3 0.00 0.00 0.00 62 1005.5
20260507070203 65 166 2.6 3.5 0.00 0.00 0.00 63 1005.6
20260507070006 65 160 2.6 3.5 0.00 0.00 0.00 64 1005.7
20260507065904 65 164 2.6 3.5 0.00 0.00 0.00 64 1005.5
20260507065803 65 165 2.6 3.5 0.00 0.00 0.00 65 1005.5
20260507065703 64 159 2.6 3.5 0.00 0.00 0.00 65 1005.6
20260507065605 64 158 2.6 3.5 0.00 0.00 0.00 65 1005.5
20260507065504 64 156 2.6 3.5 0.00 0.00 0.00 65 1005.6
20260507065404 64 159 2.6 3.5 0.00 0.00 0.00 67 1005.6
20260507065306 64 157 2.6 3.5 0.00 0.00 0.00 67 1005.7
20260507065204 64 155 1.7 3.5 0.00 0.00 0.00 68 1005.7
20260507065104 64 154 1.7 5.2 0.00 0.00 0.00 70 1005.6
20260507065004 64 152 2.6 5.2 0.00 0.00 0.00 71 1005.6
20260507064904 64 144 2.6 5.2 0.00 0.00 0.00 72 1005.5
20260507064804 64 145 2.6 5.2 0.00 0.00 0.00 72 1005.7
20260507064703 64 145 2.6 5.2 0.00 0.00 0.00 73 1005.6
20260507064603 64 144 2.6 5.2 0.00 0.00 0.00 74 1005.5
20260507064504 64 145 2.6 5.2 0.00 0.00 0.00 76 1005.6
20260507064403 64 143 2.6 5.2 0.00 0.00 0.00 76 1005.7
20260507064303 63 144 2.6 5.2 0.00 0.00 0.00 81 1005.7
20260507064203 63 150 2.6 5.2 0.00 0.00 0.00 82 1005.7
20260507064103 63 151 2.6 5.2 0.00 0.00 0.00 83 1005.5
20260507064003 63 158 2.6 5.2 0.00 0.00 0.00 84 1005.6
20260507063903 64 159 2.6 5.2 0.00 0.00 0.00 83 1005.6
20260507063803 63 153 2.6 4.3 0.00 0.00 0.00 88 1005.8
20260507063703 63 150 2.6 4.3 0.00 0.00 0.00 89 1005.7
20260507063604 63 148 2.6 4.3 0.00 0.00 0.00 90 1005.7
20260507063504 63 143 2.6 4.3 0.00 0.00 0.00 90 1005.6
20260507063404 63 143 2.6 4.3 0.00 0.00 0.00 91 1005.6
20260507063304 63 139 2.6 4.3 0.00 0.00 0.00 92 1005.6
20260507063204 64 132 2.6 4.3 0.00 0.00 0.00 90 1005.6
20260507063104 64 136 2.6 4.3 0.00 0.00 0.00 91 1005.5
20260507063004 63 127 2.6 3.5 0.00 0.00 0.00 94 1005.6
20260507062904 63 127 1.7 3.5 0.00 0.00 0.00 95 1005.4
20260507062804 63 132 1.7 3.5 0.00 0.00 0.00 95 1005.5
20260507062703 62 132 1.7 3.5 0.00 0.00 0.00 95 1005.6
20260507062603 62 131 1.7 3.5 0.00 0.00 0.00 96 1005.5
20260507062503 62 148 1.7 3.5 0.00 0.00 0.00 96 1005.4
20260507062403 61 153 0.9 2.6 0.00 0.00 0.00 96 1005.6
20260507062306 61 155 1.7 2.6 0.00 0.00 0.00 96 1005.5
20260507062203 61 166 1.7 2.6 0.00 0.00 0.00 97 1005.5
20260507062103 61 150 0.9 2.6 0.00 0.00 0.00 97 1005.6
20260507062003 61 170 0.9 2.6 0.00 0.00 0.00 97 1005.5
20260507061704 61 163 0.0 2.6 0.00 0.00 0.00 100 1005.5
20260507061604 61 180 0.0 2.6 0.00 0.00 0.00 100 1005.5
20260507061504 61 180 0.0 2.6 0.00 0.00 0.00 100 1005.4
20260507061404 61 180 0.0 2.6 0.00 0.00 0.00 100 1005.3
20260507061305 61 180 0.0 2.6 0.00 0.00 0.00 100 1005.4
20260507061204 61 0 0.0 0.0 0.00 0.00 0.00 100 1005.4
20260507061105 61 0 0.0 0.0 0.00 0.00 0.00 100 1005.4
20260507061004 60 0 0.0 0.0 0.00 0.00 0.00 100 1005.4
20260507060903 60 0 0.0 0.0 0.00 0.00 0.00 100 1005.4
20260507060803 60 0 0.0 0.0 0.00 0.00 0.00 100 1005.4
20260507060703 60 0 0.0 0.0 0.00 0.00 0.00 100 1005.4
20260507060603 60 0 0.0 0.0 0.00 0.00 0.00 100 1005.3
20260507060503 60 0 0.0 0.0 0.00 0.00 0.00 100 1005.4
20260507060403 60 0 0.0 0.0 0.00 0.00 0.00 100 1005.3
20260507060303 60 0 0.0 0.0 0.00 0.00 0.00 100 1005.3
20260507060203 60 0 0.0 0.0 0.00 0.00 0.00 100 1005.2
20260507060103 60 0 0.0 0.0 0.00 0.00 0.00 100 1005.2
20260507060003 60 0 0.0 0.0 0.00 0.00 0.00 100 1005.4
20260507055903 59 0 0.0 0.0 0.00 0.00 0.00 100 1005.3
20260507055803 59 0 0.0 0.0 0.00 0.00 0.00 100 1005.4
20260507055703 59 0 0.0 0.0 0.00 0.00 0.00 100 1005.4
20260507055603 59 0 0.0 0.0 0.00 0.00 0.00 100 1005.4
20260507055503 59 0 0.0 0.0 0.00 0.00 0.00 100 1005.3
20260507055403 59 0 0.0 0.0 0.00 0.00 0.00 100 1005.4
20260507055306 59 0 0.0 0.0 0.00 0.00 0.00 100 1005.2
20260507055204 59 0 0.0 0.0 0.00 0.00 0.00 100 1005.5
20260507055104 59 0 0.0 0.0 0.00 0.00 0.00 100 1005.2
20260507055004 59 0 0.0 0.0 0.00 0.00 0.00 100 1005.2
20260507054904 59 0 0.0 0.0 0.00 0.00 0.00 100 1005.4
20260507054804 58 0 0.0 0.0 0.00 0.00 0.00 100 1005.6
20260507054704 58 0 0.0 0.0 0.00 0.00 0.00 100 1005.2
20260507054604 58 0 0.0 0.0 0.00 0.00 0.00 100 1005.3
20260507054504 58 0 0.0 0.0 0.00 0.00 0.00 100 1005.4
20260507054403 58 0 0.0 0.0 0.00 0.00 0.00 100 1005.2
20260507054303 58 0 0.0 0.0 0.00 0.00 0.00 100 1005.4
20260507054203 58 0 0.0 0.0 0.00 0.00 0.00 100 1005.3
20260507054103 58 0 0.0 0.0 0.00 0.00 0.00 100 1005.3
20260507054003 58 0 0.0 0.0 0.00 0.00 0.00 100 1005.3
20260507053903 58 0 0.0 0.0 0.00 0.00 0.00 100 1005.3
20260507053803 58 0 0.0 0.0 0.00 0.00 0.00 100 1005.3
20260507053703 57 0 0.0 0.0 0.00 0.00 0.00 100 1005.1
20260507053603 57 0 0.0 0.0 0.00 0.00 0.00 100 1005.3
20260507053504 57 0 0.0 0.0 0.00 0.00 0.00 100 1005.3
20260507053404 57 0 0.0 0.0 0.00 0.00 0.00 100 1005.3
20260507053304 57 0 0.0 0.0 0.00 0.00 0.00 97 1005.3
20260507053204 57 0 0.0 0.0 0.00 0.00 0.00 97 1005.4
20260507053104 56 0 0.0 0.0 0.00 0.00 0.00 97 1005.3
20260507053004 56 0 0.0 0.0 0.00 0.00 0.00 97 1005.3
20260507052903 56 0 0.0 0.0 0.00 0.00 0.00 97 1005.4
20260507052803 56 0 0.0 0.0 0.00 0.00 0.00 97 1005.3
20260507052703 56 0 0.0 0.0 0.00 0.00 0.00 97 1005.2
20260507052603 56 0 0.0 0.0 0.00 0.00 0.00 97 1005.2
20260507052503 56 0 0.0 0.0 0.00 0.00 0.00 97 1005.3
20260507052403 55 0 0.0 0.0 0.00 0.00 0.00 97 1005.3
20260507052306 55 0 0.0 0.0 0.00 0.00 0.00 97 1005.1
20260507052203 55 0 0.0 0.0 0.00 0.00 0.00 97 1005.2
20260507052103 54 0 0.0 0.0 0.00 0.00 0.00 97 1005.2
20260507052003 54 0 0.0 0.0 0.00 0.00 0.00 99 1005.1
20260507051703 54 0 0.0 0.0 0.00 0.00 0.00 99 1005.1
20260507051603 54 0 0.0 0.0 0.00 0.00 0.00 99 1005.1
20260507051503 54 0 0.0 0.0 0.00 0.00 0.00 99 1005.1
20260507051403 53 0 0.0 0.0 0.00 0.00 0.00 99 1005.2
20260507051303 53 0 0.0 0.0 0.00 0.00 0.00 99 1005.2
20260507051203 53 0 0.0 0.0 0.00 0.00 0.00 99 1005.2
20260507051003 53 0 0.0 0.0 0.00 0.00 0.00 99 1005.3
20260507050903 53 0 0.0 0.0 0.00 0.00 0.00 99 1005.2
20260507050803 53 0 0.0 0.0 0.00 0.00 0.00 99 1005.2
20260507050704 53 0 0.0 0.0 0.00 0.00 0.00 99 1005.3
20260507050604 53 0 0.0 0.0 0.00 0.00 0.00 99 1005.3
20260507050504 53 0 0.0 0.0 0.00 0.00 0.00 99 1005.2
20260507050404 53 0 0.0 0.0 0.00 0.00 0.00 99 1005.3
20260507050304 53 0 0.0 0.0 0.00 0.00 0.00 99 1005.4
20260507050204 53 0 0.0 0.0 0.00 0.00 0.00 99 1005.4
20260507050104 53 0 0.0 0.0 0.00 0.00 0.00 99 1005.4
20260507050004 53 0 0.0 0.0 0.00 0.00 0.00 99 1005.5
20260507045903 53 0 0.0 0.0 0.00 0.00 0.00 99 1005.7
20260507045803 52 0 0.0 0.0 0.00 0.00 0.00 99 1005.5
20260507045703 52 0 0.0 0.0 0.00 0.00 0.00 99 1005.5
20260507045603 52 0 0.0 0.0 0.00 0.00 0.00 99 1005.7
20260507045503 52 0 0.0 0.0 0.00 0.00 0.00 99 1005.5
20260507045403 52 0 0.0 0.0 0.00 0.00 0.00 99 1005.7
20260507045306 52 0 0.0 0.0 0.00 0.00 0.00 99 1005.7
20260507045203 52 0 0.0 0.0 0.00 0.00 0.00 99 1005.6
20260507045103 52 0 0.0 0.0 0.00 0.00 0.00 99 1005.6
20260507045003 52 0 0.0 0.0 0.00 0.00 0.00 99 1005.8
20260507044903 52 0 0.0 0.0 0.00 0.00 0.00 99 1005.7
20260507044803 52 0 0.0 0.0 0.00 0.00 0.00 99 1005.6
20260507044703 52 0 0.0 0.0 0.00 0.00 0.00 99 1005.7
20260507044606 52 0 0.0 0.0 0.00 0.00 0.00 99 1005.5
20260507044503 52 0 0.0 0.0 0.00 0.00 0.00 99 1005.6
20260507044404 52 0 0.0 0.0 0.00 0.00 0.00 99 1005.6
20260507044204 52 0 0.0 0.0 0.00 0.00 0.00 99 1005.4
20260507044004 51 0 0.0 0.0 0.00 0.00 0.00 99 1005.5
20260507043904 51 0 0.0 0.0 0.00 0.00 0.00 100 1005.5
20260507043804 51 0 0.0 0.0 0.00 0.00 0.00 100 1005.5
20260507043704 51 0 0.0 0.0 0.00 0.00 0.00 100 1005.4
20260507043604 51 0 0.0 0.0 0.00 0.00 0.00 100 1005.4
20260507043504 51 0 0.0 0.0 0.00 0.00 0.00 100 1005.5
20260507043403 51 0 0.0 0.0 0.00 0.00 0.00 100 1005.4
20260507043304 51 0 0.0 0.0 0.00 0.00 0.00 100 1005.4
20260507043203 51 0 0.0 0.0 0.00 0.00 0.00 100 1005.4
20260507043103 51 0 0.0 0.0 0.00 0.00 0.00 100 1005.5
20260507043003 51 0 0.0 0.0 0.00 0.00 0.00 100 1005.4
20260507042903 51 0 0.0 0.0 0.00 0.00 0.00 100 1005.4
20260507042803 51 0 0.0 0.0 0.00 0.00 0.00 100 1005.4
20260507042703 51 0 0.0 0.0 0.00 0.00 0.00 100 1005.6
20260507042603 51 0 0.0 0.0 0.00 0.00 0.00 100 1005.3
20260507042503 51 0 0.0 0.0 0.00 0.00 0.00 100 1005.3
20260507042403 51 0 0.0 0.0 0.00 0.00 0.00 100 1005.4
20260507042306 51 0 0.0 0.0 0.00 0.00 0.00 100 1005.2
20260507042204 51 0 0.0 0.0 0.00 0.00 0.00 100 1005.4
20260507042104 51 0 0.0 0.0 0.00 0.00 0.00 100 1005.2
20260507042004 51 0 0.0 0.0 0.00 0.00 0.00 100 1005.3
20260507041704 51 0 0.0 0.0 0.00 0.00 0.00 100 1005.3
20260507041603 51 0 0.0 0.0 0.00 0.00 0.00 100 1005.3
20260507041503 51 0 0.0 0.0 0.00 0.00 0.00 100 1005.2
20260507041403 51 0 0.0 0.0 0.00 0.00 0.00 100 1005.2
20260507041303 51 0 0.0 0.0 0.00 0.00 0.00 100 1005.2
20260507041203 51 0 0.0 0.0 0.00 0.00 0.00 100 1005.2
20260507041103 51 0 0.0 0.0 0.00 0.00 0.00 100 1005.1
20260507041003 51 0 0.0 0.0 0.00 0.00 0.00 100 1005.1
20260507040903 51 0 0.0 0.0 0.00 0.00 0.00 100 1005.0
20260507040804 51 0 0.0 0.0 0.00 0.00 0.00 100 1005.0
20260507040703 52 0 0.0 0.0 0.00 0.00 0.00 100 1005.0
20260507040603 52 0 0.0 0.0 0.00 0.00 0.00 100 1005.0
20260507040504 52 0 0.0 0.0 0.00 0.00 0.00 100 1005.0
20260507040404 52 0 0.0 0.0 0.00 0.00 0.00 100 1005.0
20260507040304 52 0 0.0 0.0 0.00 0.00 0.00 100 1005.0
20260507040204 52 0 0.0 0.0 0.00 0.00 0.00 100 1005.1
20260507040104 52 0 0.0 0.0 0.00 0.00 0.00 100 1005.0
20260507040004 52 0 0.0 0.0 0.00 0.00 0.00 100 1005.0
20260507035904 52 0 0.0 0.0 0.00 0.00 0.00 100 1005.0
20260507035804 52 0 0.0 0.0 0.00 0.00 0.00 100 1005.0
20260507035704 52 0 0.0 0.0 0.00 0.00 0.00 100 1005.1
20260507035603 52 0 0.0 0.0 0.00 0.00 0.00 100 1005.1
20260507035504 52 0 0.0 0.0 0.00 0.00 0.00 100 1005.0
20260507035403 52 0 0.0 0.0 0.00 0.00 0.00 100 1005.1
20260507035306 52 0 0.0 0.0 0.00 0.00 0.00 100 1005.0
20260507035203 52 0 0.0 0.0 0.00 0.00 0.00 100 1005.0
20260507035103 52 0 0.0 0.0 0.00 0.00 0.00 100 1004.9
20260507035003 52 0 0.0 0.0 0.00 0.00 0.00 100 1005.0
20260507034903 52 0 0.0 0.0 0.00 0.00 0.00 100 1004.9
20260507034803 52 0 0.0 0.0 0.00 0.00 0.00 100 1004.9
20260507034703 52 0 0.0 0.0 0.00 0.00 0.00 100 1004.9
20260507034603 53 0 0.0 0.0 0.00 0.00 0.00 100 1004.8
20260507034503 53 0 0.0 0.0 0.00 0.00 0.00 100 1004.7
20260507034404 53 0 0.0 0.0 0.00 0.00 0.00 100 1004.8
20260507034304 53 0 0.0 0.0 0.00 0.00 0.00 100 1004.7
20260507034204 53 0 0.0 0.0 0.00 0.00 0.00 100 1004.8
20260507034104 53 0 0.0 0.0 0.00 0.00 0.00 100 1004.7
20260507034004 53 0 0.0 0.0 0.00 0.00 0.00 100 1004.7
20260507033904 53 0 0.0 0.0 0.00 0.00 0.00 100 1004.9
20260507033804 53 0 0.0 0.0 0.00 0.00 0.00 100 1004.8
20260507033704 53 0 0.0 0.0 0.00 0.00 0.00 100 1004.7
20260507033604 53 0 0.0 0.0 0.00 0.00 0.00 100 1004.7
20260507033503 53 0 0.0 0.0 0.00 0.00 0.00 100 1004.8
20260507033403 53 0 0.0 0.0 0.00 0.00 0.00 100 1004.8
20260507033303 53 0 0.0 0.0 0.00 0.00 0.00 100 1004.8
20260507033203 53 0 0.0 0.0 0.00 0.00 0.00 100 1004.8
20260507033103 53 0 0.0 0.0 0.00 0.00 0.00 100 1004.8
20260507033003 53 0 0.0 0.0 0.00 0.00 0.00 100 1004.7
20260507032903 53 0 0.0 0.0 0.00 0.00 0.00 100 1004.7
20260507032803 53 0 0.0 0.0 0.00 0.00 0.00 100 1004.7
20260507032703 53 0 0.0 0.0 0.00 0.00 0.00 100 1004.8
20260507032603 53 0 0.0 0.0 0.00 0.00 0.00 100 1004.7
20260507032504 53 0 0.0 0.0 0.00 0.00 0.00 100 1004.7
20260507032404 53 0 0.0 0.0 0.00 0.00 0.00 100 1004.8
20260507032306 53 0 0.0 0.0 0.00 0.00 0.00 100 1004.7
20260507032204 53 0 0.0 0.0 0.00 0.00 0.00 100 1004.7
20260507032104 53 0 0.0 0.0 0.00 0.00 0.00 100 1004.8
20260507032004 53 0 0.0 0.0 0.00 0.00 0.00 100 1004.7
20260507031703 53 0 0.0 0.0 0.00 0.00 0.00 100 1004.7
20260507031604 53 0 0.0 0.0 0.00 0.00 0.00 100 1004.8
20260507031504 53 0 0.0 0.0 0.00 0.00 0.00 100 1004.8
20260507031404 53 0 0.0 0.0 0.00 0.00 0.00 100 1004.8
20260507031304 53 0 0.0 0.0 0.00 0.00 0.00 100 1004.8
20260507031204 53 0 0.0 0.0 0.00 0.00 0.00 100 1004.8
20260507031103 54 0 0.0 0.0 0.00 0.00 0.00 100 1004.8
20260507031003 54 0 0.0 0.0 0.00 0.00 0.00 100 1004.8
20260507030904 54 0 0.0 0.0 0.00 0.00 0.00 100 1004.8
20260507030803 54 0 0.0 0.0 0.00 0.00 0.00 100 1004.8
20260507030704 54 0 0.0 0.0 0.00 0.00 0.00 100 1004.9
20260507030603 54 0 0.0 0.0 0.00 0.00 0.00 100 1005.0
20260507030503 54 0 0.0 0.0 0.00 0.00 0.00 100 1004.9
20260507030403 54 0 0.0 0.0 0.00 0.00 0.00 100 1004.8
20260507030303 54 0 0.0 0.0 0.00 0.00 0.00 100 1004.9
20260507030203 54 0 0.0 0.0 0.00 0.00 0.00 100 1004.9
20260507030110 54 0 0.0 0.0 0.00 0.00 0.00 100 1004.8
20260507030003 54 0 0.0 0.0 0.00 0.00 0.00 100 1005.0
20260507025904 54 0 0.0 0.0 0.00 0.00 0.00 100 1004.9
20260507025804 54 0 0.0 0.0 0.00 0.00 0.00 100 1005.1
20260507025704 54 0 0.0 0.0 0.00 0.00 0.00 100 1005.0
20260507025604 54 0 0.0 0.0 0.00 0.00 0.00 100 1005.1
20260507025504 54 0 0.0 0.0 0.00 0.00 0.00 100 1005.1
20260507025404 54 0 0.0 0.0 0.00 0.00 0.00 100 1005.0
20260507025306 54 0 0.0 0.0 0.00 0.00 0.00 100 1004.9
20260507025204 54 0 0.0 0.0 0.00 0.00 0.00 100 1005.0
20260507025104 54 0 0.0 0.0 0.00 0.00 0.00 100 1005.1
20260507025003 54 0 0.0 0.0 0.00 0.00 0.00 100 1005.0
20260507024903 54 0 0.0 0.0 0.00 0.00 0.00 100 1004.9
20260507024803 54 0 0.0 0.0 0.00 0.00 0.00 100 1005.0
20260507024703 54 0 0.0 0.0 0.00 0.00 0.00 100 1005.0
20260507024603 54 0 0.0 0.0 0.00 0.00 0.00 100 1005.0
20260507024503 54 0 0.0 0.0 0.00 0.00 0.00 100 1004.9
20260507024403 54 0 0.0 0.0 0.00 0.00 0.00 100 1005.1
20260507024303 54 0 0.0 0.0 0.00 0.00 0.00 100 1004.9
20260507024203 54 0 0.0 0.0 0.00 0.00 0.00 100 1005.0
20260507024103 54 0 0.0 0.0 0.00 0.00 0.00 100 1005.0
20260507024003 54 0 0.0 0.0 0.00 0.00 0.00 100 1005.0
20260507023903 54 0 0.0 0.0 0.00 0.00 0.00 100 1004.9
20260507023803 54 0 0.0 0.0 0.00 0.00 0.00 100 1005.0
20260507023703 54 0 0.0 0.0 0.00 0.00 0.00 100 1005.0
20260507023603 54 0 0.0 0.0 0.00 0.00 0.00 100 1004.9
20260507023504 54 0 0.0 0.0 0.00 0.00 0.00 100 1005.1
20260507023404 54 0 0.0 0.0 0.00 0.00 0.00 100 1005.0
20260507023304 54 0 0.0 0.0 0.00 0.00 0.00 100 1005.0
20260507023204 54 0 0.0 0.0 0.00 0.00 0.00 100 1005.1
20260507023104 54 0 0.0 0.0 0.00 0.00 0.00 100 1005.0
20260507023004 54 0 0.0 0.0 0.00 0.00 0.00 100 1005.1
20260507022904 54 0 0.0 0.0 0.00 0.00 0.00 100 1005.0
20260507022804 54 0 0.0 0.0 0.00 0.00 0.00 100 1005.1
20260507022704 54 0 0.0 0.0 0.00 0.00 0.00 100 1005.1
20260507022603 54 0 0.0 0.0 0.00 0.00 0.00 100 1005.2
20260507022503 54 0 0.0 0.0 0.00 0.00 0.00 100 1005.1
20260507022403 54 0 0.0 0.0 0.00 0.00 0.00 100 1005.2
20260507022306 54 0 0.0 0.0 0.00 0.00 0.00 100 1005.1
20260507022203 54 0 0.0 0.0 0.00 0.00 0.00 100 1005.3
20260507022103 54 0 0.0 0.0 0.00 0.00 0.00 100 1005.2
20260507022003 54 0 0.0 0.0 0.00 0.00 0.00 100 1005.2
20260507021703 54 0 0.0 0.0 0.00 0.00 0.00 100 1005.2
20260507021603 54 0 0.0 0.0 0.00 0.00 0.00 100 1005.3
20260507021503 54 0 0.0 0.0 0.00 0.00 0.00 100 1005.3
20260507021404 54 0 0.0 0.0 0.00 0.00 0.00 100 1005.2
20260507021303 54 0 0.0 0.0 0.00 0.00 0.00 100 1005.4
20260507021204 54 0 0.0 0.0 0.00 0.00 0.00 100 1005.3
20260507021104 54 0 0.0 0.0 0.00 0.00 0.00 100 1005.2
20260507021004 54 0 0.0 0.0 0.00 0.00 0.00 100 1005.2
20260507020904 54 0 0.0 0.0 0.00 0.00 0.00 97 1005.3
20260507020804 54 0 0.0 0.0 0.00 0.00 0.00 97 1005.2
20260507020704 54 0 0.0 0.0 0.00 0.00 0.00 97 1005.2
20260507020604 54 0 0.0 0.0 0.00 0.00 0.00 97 1005.2
20260507020504 54 0 0.0 0.0 0.00 0.00 0.00 97 1005.2
20260507020403 54 0 0.0 0.0 0.00 0.00 0.00 97 1005.2
20260507020303 54 0 0.0 0.0 0.00 0.00 0.00 97 1005.3
20260507020203 54 0 0.0 0.0 0.00 0.00 0.00 97 1005.1
20260507020103 54 0 0.0 0.0 0.00 0.00 0.00 97 1005.2
20260507020003 54 0 0.0 0.0 0.00 0.00 0.00 97 1005.1
20260507015903 54 0 0.0 0.0 0.00 0.00 0.00 97 1005.1
20260507015803 54 0 0.0 0.0 0.00 0.00 0.00 97 1005.2
20260507015703 54 0 0.0 0.0 0.00 0.00 0.00 97 1005.2
20260507015603 54 0 0.0 0.0 0.00 0.00 0.00 97 1005.3
20260507015503 54 0 0.0 0.0 0.00 0.00 0.00 97 1005.3
20260507015403 53 0 0.0 0.0 0.00 0.00 0.00 97 1005.2
20260507015306 53 0 0.0 0.0 0.00 0.00 0.00 97 1005.3
20260507015204 53 0 0.0 0.0 0.00 0.00 0.00 97 1005.3
20260507015104 53 0 0.0 0.0 0.00 0.00 0.00 97 1005.2
20260507015004 53 0 0.0 0.0 0.00 0.00 0.00 97 1005.1
20260507014904 53 0 0.0 0.0 0.00 0.00 0.00 97 1005.3
20260507014804 53 0 0.0 0.0 0.00 0.00 0.00 97 1005.2
20260507014704 53 0 0.0 0.0 0.00 0.00 0.00 97 1005.1
20260507014604 53 0 0.0 0.0 0.00 0.00 0.00 97 1005.2
20260507014504 53 0 0.0 0.0 0.00 0.00 0.00 97 1005.2
20260507014404 53 0 0.0 0.0 0.00 0.00 0.00 97 1005.1
20260507014304 53 0 0.0 0.0 0.00 0.00 0.00 97 1005.1
20260507014203 53 0 0.0 0.0 0.00 0.00 0.00 97 1005.0
20260507014103 53 0 0.0 0.0 0.00 0.00 0.00 97 1005.1
20260507014003 53 0 0.0 0.0 0.00 0.00 0.00 97 1005.1
20260507013903 53 0 0.0 0.0 0.00 0.00 0.00 97 1005.1
20260507013803 53 0 0.0 0.0 0.00 0.00 0.00 97 1005.1
20260507013704 53 0 0.0 0.0 0.00 0.00 0.00 97 1005.1
20260507013603 53 0 0.0 0.0 0.00 0.00 0.00 97 1005.1
20260507013503 53 0 0.0 0.0 0.00 0.00 0.00 97 1005.1
20260507013403 53 0 0.0 0.0 0.00 0.00 0.00 97 1005.1
20260507013305 53 0 0.0 0.0 0.00 0.00 0.00 97 1005.1
20260507013008 53 0 0.0 0.0 0.00 0.00 0.00 97 1005.1
20260507012904 53 0 0.0 0.0 0.00 0.00 0.00 97 1005.2
20260507012804 53 0 0.0 0.0 0.00 0.00 0.00 97 1005.2
20260507012704 53 0 0.0 0.0 0.00 0.00 0.00 97 1005.1
20260507012604 53 0 0.0 0.0 0.00 0.00 0.00 97 1005.2
20260507012504 53 0 0.0 0.0 0.00 0.00 0.00 97 1005.4
20260507012404 53 0 0.0 0.0 0.00 0.00 0.00 97 1005.1
20260507012306 53 0 0.0 0.0 0.00 0.00 0.00 97 1005.2
20260507012204 53 0 0.0 0.0 0.00 0.00 0.00 97 1005.3
20260507012104 53 0 0.0 0.0 0.00 0.00 0.00 97 1005.1
20260507012004 53 0 0.0 0.0 0.00 0.00 0.00 97 1005.2
20260507011703 53 0 0.0 0.0 0.00 0.00 0.00 97 1005.2
20260507011603 53 0 0.0 0.0 0.00 0.00 0.00 97 1005.4
20260507011503 53 0 0.0 0.0 0.00 0.00 0.00 97 1005.3
20260507011404 53 0 0.0 0.0 0.00 0.00 0.00 97 1005.2
20260507011304 53 0 0.0 0.0 0.00 0.00 0.00 97 1005.3
20260507011204 53 0 0.0 0.0 0.00 0.00 0.00 96 1005.2
20260507011104 53 0 0.0 0.0 0.00 0.00 0.00 96 1005.3
20260507011004 53 0 0.0 0.0 0.00 0.00 0.00 96 1005.3
20260507010904 53 0 0.0 0.0 0.00 0.00 0.00 96 1005.3
20260507010804 53 0 0.0 0.0 0.00 0.00 0.00 96 1005.4
20260507010704 53 0 0.0 0.0 0.00 0.00 0.00 96 1005.3
20260507010603 53 0 0.0 0.0 0.00 0.00 0.00 96 1005.3
20260507010503 53 0 0.0 0.0 0.00 0.00 0.00 96 1005.2
20260507010403 53 0 0.0 0.0 0.00 0.00 0.00 96 1005.3
20260507010303 53 0 0.0 0.0 0.00 0.00 0.00 96 1005.3
20260507010203 53 0 0.0 0.0 0.00 0.00 0.00 96 1005.2
20260507010003 53 0 0.0 0.0 0.00 0.00 0.00 96 1005.2
20260507005903 53 0 0.0 0.0 0.00 0.00 0.00 96 1005.3
20260507005803 53 0 0.0 0.0 0.00 0.00 0.00 96 1005.3
20260507005703 53 0 0.0 0.0 0.00 0.00 0.00 96 1005.2
20260507005603 53 0 0.0 0.0 0.00 0.00 0.00 96 1005.3
20260507005504 53 0 0.0 0.0 0.00 0.00 0.00 96 1005.2
20260507005404 53 0 0.0 0.0 0.00 0.00 0.00 96 1005.3
20260507005305 53 0 0.0 0.0 0.00 0.00 0.00 96 1005.3
20260507005204 53 0 0.0 0.0 0.00 0.00 0.00 96 1005.3
20260507005104 53 0 0.0 0.0 0.00 0.00 0.00 96 1005.2
20260507005004 53 0 0.0 0.0 0.00 0.00 0.00 96 1005.3
20260507004904 53 0 0.0 0.0 0.00 0.00 0.00 96 1005.3
20260507004804 53 0 0.0 0.0 0.00 0.00 0.00 96 1005.4
20260507004704 53 0 0.0 0.0 0.00 0.00 0.00 96 1005.3
20260507004604 53 0 0.0 0.0 0.00 0.00 0.00 96 1005.3
20260507004504 53 0 0.0 0.0 0.00 0.00 0.00 96 1005.2
20260507004403 53 0 0.0 0.0 0.00 0.00 0.00 96 1005.4
20260507004303 53 0 0.0 0.0 0.00 0.00 0.00 96 1005.4
20260507004203 53 0 0.0 0.0 0.00 0.00 0.00 96 1005.3
20260507004103 53 0 0.0 0.0 0.00 0.00 0.00 96 1005.4
20260507004003 53 0 0.0 0.0 0.00 0.00 0.00 96 1005.2
20260507003903 53 0 0.0 0.0 0.00 0.00 0.00 96 1005.3
20260507003803 53 0 0.0 0.0 0.00 0.00 0.00 96 1005.2
20260507003703 53 0 0.0 0.0 0.00 0.00 0.00 96 1005.2
20260507003603 53 0 0.0 0.0 0.00 0.00 0.00 96 1005.2
20260507003503 53 0 0.0 0.0 0.00 0.00 0.00 96 1005.3
20260507003404 53 0 0.0 0.0 0.00 0.00 0.00 96 1005.4
20260507003304 53 0 0.0 0.0 0.00 0.00 0.00 96 1005.2
20260507003204 53 0 0.0 0.0 0.00 0.00 0.00 96 1005.3
20260507003104 53 0 0.0 0.0 0.00 0.00 0.00 96 1005.4
20260507003004 53 0 0.0 0.0 0.00 0.00 0.00 96 1005.3
20260507002904 53 0 0.0 0.0 0.00 0.00 0.00 96 1005.5
20260507002804 53 0 0.0 0.0 0.00 0.00 0.00 96 1005.3
20260507002704 53 0 0.0 0.0 0.00 0.00 0.00 96 1005.4
20260507002604 53 0 0.0 0.0 0.00 0.00 0.00 96 1005.4
20260507002504 53 0 0.0 0.0 0.00 0.00 0.00 96 1005.4
20260507002403 53 0 0.0 0.0 0.00 0.00 0.00 96 1005.4
20260507002306 53 0 0.0 0.0 0.00 0.00 0.00 96 1005.4
20260507002203 54 0 0.0 0.0 0.00 0.00 0.00 96 1005.5
20260507002103 54 0 0.0 0.0 0.00 0.00 0.00 96 1005.5
20260507002004 54 0 0.0 0.0 0.00 0.00 0.00 96 1005.5
20260507001704 54 0 0.0 0.0 0.00 0.00 0.00 96 1005.6
20260507001603 54 0 0.0 0.0 0.00 0.00 0.00 96 1005.5
20260507001503 54 0 0.0 0.0 0.00 0.00 0.00 96 1005.6
20260507001403 54 0 0.0 0.0 0.00 0.00 0.00 96 1005.5
20260507001304 54 0 0.0 0.0 0.00 0.00 0.00 96 1005.4
20260507001203 54 0 0.0 0.0 0.00 0.00 0.00 96 1005.5
20260507001103 54 0 0.0 0.0 0.00 0.00 0.00 96 1005.4
20260507001003 54 0 0.0 0.0 0.00 0.00 0.00 96 1005.3
20260507000903 54 0 0.0 0.0 0.00 0.00 0.00 96 1005.5
20260507000803 54 90 0.0 1.7 0.00 0.00 0.00 96 1005.3
20260507000703 54 97 0.0 2.6 0.00 0.00 0.00 96 1005.4
20260507000603 54 175 0.0 2.6 0.00 0.00 0.00 95 1005.4
20260507000505 54 175 0.0 2.6 0.00 0.00 0.00 95 1005.4
20260507000405 54 160 0.0 2.6 0.00 0.00 0.00 95 1005.4
20260507000306 54 137 0.9 2.6 0.00 0.00 0.00 95 1005.4
20260507000205 54 107 0.9 2.6 0.00 0.00 0.00 95 1005.3
20260507000104 54 75 0.9 2.6 0.00 0.00 0.00 95 1005.3
20260507000004 54 71 0.9 2.6 0.00 0.00 0.00 95 1005.3
20260506235904 54 66 0.9 2.6 0.00 0.00 0.00 95 1005.3
20260506235804 54 28 0.9 2.6 0.00 0.00 0.00 95 1005.3
20260506235704 54 32 0.9 2.6 0.00 0.00 0.00 95 1005.3
20260506235604 54 29 0.9 1.7 0.00 0.00 0.00 95 1005.3
20260506235503 54 29 0.9 1.7 0.00 0.00 0.00 95 1005.3
20260506235403 54 25 0.9 1.7 0.00 0.00 0.00 95 1005.3
20260506235306 54 36 0.9 2.6 0.00 0.00 0.00 95 1005.4
20260506235203 54 33 0.9 2.6 0.00 0.00 0.00 95 1005.4
20260506235103 53 101 0.9 2.6 0.00 0.00 0.00 95 1005.4
20260506235003 53 180 0.0 2.6 0.00 0.00 0.00 95 1005.3
20260506234903 53 180 0.9 2.6 0.00 0.00 0.00 95 1005.4
20260506234803 53 180 0.0 2.6 0.00 0.00 0.00 95 1005.4
20260506234703 53 176 0.0 2.6 0.00 0.00 0.00 95 1005.4
20260506234603 53 166 0.9 2.6 0.00 0.00 0.00 95 1005.4
20260506234503 53 168 0.9 2.6 0.00 0.00 0.00 95 1005.4
20260506234404 53 161 0.9 2.6 0.00 0.00 0.00 95 1005.4
20260506234304 53 47 0.9 2.6 0.00 0.00 0.00 95 1005.5
20260506234204 53 35 0.9 1.7 0.00 0.00 0.00 95 1005.5
20260506234104 53 35 0.9 1.7 0.00 0.00 0.00 95 1005.5
20260506234004 53 35 0.9 1.7 0.00 0.00 0.00 95 1005.5
20260506233904 53 28 0.9 1.7 0.00 0.00 0.00 95 1005.4
20260506233804 53 27 0.9 1.7 0.00 0.00 0.00 95 1005.4
20260506233704 53 17 0.9 1.7 0.00 0.00 0.00 95 1005.5
20260506233604 53 360 0.0 1.7 0.00 0.00 0.00 95 1005.5
20260506233503 53 360 0.0 1.7 0.00 0.00 0.00 95 1005.5
20260506233403 53 360 0.0 1.7 0.00 0.00 0.00 95 1005.4
20260506233303 53 0 0.0 0.0 0.00 0.00 0.00 95 1005.5
20260506233203 53 0 0.0 0.0 0.00 0.00 0.00 95 1005.5
20260506233103 53 0 0.0 0.0 0.00 0.00 0.00 95 1005.5
20260506233003 53 0 0.0 0.0 0.00 0.00 0.00 95 1005.6
20260506232903 53 0 0.0 0.0 0.00 0.00 0.00 95 1005.7
20260506232803 53 0 0.0 0.0 0.00 0.00 0.00 94 1005.5
20260506232703 53 0 0.0 0.0 0.00 0.00 0.00 94 1005.6
20260506232603 53 0 0.0 0.0 0.00 0.00 0.00 94 1005.4
20260506232503 53 0 0.0 0.0 0.00 0.00 0.00 94 1005.6
20260506232404 53 0 0.0 0.0 0.00 0.00 0.00 94 1005.6
20260506232306 53 0 0.0 0.0 0.00 0.00 0.00 94 1005.6
20260506232204 53 0 0.0 0.0 0.00 0.00 0.00 94 1005.5
20260506232104 53 0 0.0 0.0 0.00 0.00 0.00 94 1005.5
20260506232004 53 0 0.0 0.0 0.00 0.00 0.00 94 1005.5
20260506231703 53 0 0.0 0.0 0.00 0.00 0.00 94 1005.6
20260506231603 53 0 0.0 0.0 0.00 0.00 0.00 94 1005.6
20260506231503 53 0 0.0 0.0 0.00 0.00 0.00 94 1005.5
20260506231404 53 0 0.0 0.0 0.00 0.00 0.00 94 1005.6
20260506231003 52 0 0.0 0.0 0.00 0.00 0.00 94 1005.5
20260506230903 52 0 0.0 0.0 0.00 0.00 0.00 94 1005.4
20260506230803 52 0 0.0 0.0 0.00 0.00 0.00 94 1005.4
20260506230703 52 0 0.0 0.0 0.00 0.00 0.00 94 1005.4
20260506230604 52 0 0.0 0.0 0.00 0.00 0.00 94 1005.3
20260506230503 52 0 0.0 0.0 0.00 0.00 0.00 94 1005.5
20260506230403 52 0 0.0 0.0 0.00 0.00 0.00 94 1005.5
20260506230303 52 0 0.0 0.0 0.00 0.00 0.00 94 1005.4
20260506230203 52 0 0.0 0.0 0.00 0.00 0.00 94 1005.3
20260506230103 52 45 0.0 1.7 0.00 0.00 0.00 94 1005.5
20260506230004 52 6 0.0 1.7 0.00 0.00 0.00 94 1005.4
20260506225904 52 339 0.0 1.7 0.00 0.00 0.00 93 1005.5
20260506225804 52 328 0.9 1.7 0.00 0.00 0.00 93 1005.3
20260506225704 52 336 0.9 1.7 0.00 0.00 0.00 93 1005.4
20260506225604 52 339 0.9 1.7 0.00 0.00 0.00 93 1005.5
20260506225504 52 340 0.9 1.7 0.00 0.00 0.00 93 1005.5
20260506225404 52 340 0.9 1.7 0.00 0.00 0.00 93 1005.5
20260506225305 52 340 0.9 1.7 0.00 0.00 0.00 93 1005.5
20260506225204 52 340 0.9 1.7 0.00 0.00 0.00 93 1005.5
20260506225104 52 333 0.9 1.7 0.00 0.00 0.00 93 1005.6
20260506225004 52 331 0.9 1.7 0.00 0.00 0.00 93 1005.5
20260506224904 51 345 0.9 1.7 0.00 0.00 0.00 93 1005.4
20260506224804 51 345 0.0 1.7 0.00 0.00 0.00 93 1005.4
20260506224704 51 353 0.0 1.7 0.00 0.00 0.00 93 1005.4
20260506224604 51 0 0.0 0.0 0.00 0.00 0.00 93 1005.3
20260506224503 51 0 0.0 0.0 0.00 0.00 0.00 93 1005.5
20260506224403 51 0 0.0 0.0 0.00 0.00 0.00 93 1005.4
20260506224303 51 0 0.0 0.0 0.00 0.00 0.00 93 1005.5
20260506224203 51 0 0.0 0.0 0.00 0.00 0.00 93 1005.5
20260506224103 51 0 0.0 0.0 0.00 0.00 0.00 93 1005.5
20260506224003 51 0 0.0 0.0 0.00 0.00 0.00 93 1005.5
20260506223903 51 0 0.0 0.0 0.00 0.00 0.00 92 1005.5
20260506223803 51 0 0.0 0.0 0.00 0.00 0.00 92 1005.5
20260506223703 51 0 0.0 0.0 0.00 0.00 0.00 92 1005.5
20260506223603 51 0 0.0 0.0 0.00 0.00 0.00 92 1005.4
20260506223503 51 0 0.0 0.0 0.00 0.00 0.00 92 1005.5
20260506223403 51 0 0.0 0.0 0.00 0.00 0.00 92 1005.5
20260506223303 51 0 0.0 0.0 0.00 0.00 0.00 92 1005.5
20260506223203 51 0 0.0 0.0 0.00 0.00 0.00 92 1005.5
20260506223103 51 0 0.0 0.0 0.00 0.00 0.00 92 1005.5
20260506223004 51 0 0.0 0.0 0.00 0.00 0.00 92 1005.4
20260506222904 51 0 0.0 0.0 0.00 0.00 0.00 92 1005.5
20260506222804 51 0 0.0 0.0 0.00 0.00 0.00 92 1005.5
20260506222704 51 0 0.0 0.0 0.00 0.00 0.00 92 1005.4
20260506222604 51 0 0.0 0.0 0.00 0.00 0.00 92 1005.4
20260506222504 51 0 0.0 0.0 0.00 0.00 0.00 92 1005.5
20260506222404 51 0 0.0 0.0 0.00 0.00 0.00 92 1005.5
20260506222306 51 0 0.0 0.0 0.00 0.00 0.00 92 1005.5
20260506222204 51 0 0.0 0.0 0.00 0.00 0.00 92 1005.5
20260506222104 51 0 0.0 0.0 0.00 0.00 0.00 92 1005.5
20260506222004 51 0 0.0 0.0 0.00 0.00 0.00 92 1005.6
20260506221703 51 0 0.0 0.0 0.00 0.00 0.00 92 1005.4
20260506221603 51 0 0.0 0.0 0.00 0.00 0.00 92 1005.4
20260506221504 51 0 0.0 0.0 0.00 0.00 0.00 92 1005.5
20260506221204 51 0 0.0 0.0 0.00 0.00 0.00 92 1005.6
20260506221104 51 0 0.0 0.0 0.00 0.00 0.00 92 1005.6
20260506221004 51 0 0.0 0.0 0.00 0.00 0.00 92 1005.6
20260506220904 51 0 0.0 0.0 0.00 0.00 0.00 92 1005.5
20260506220804 51 0 0.0 0.0 0.00 0.00 0.00 92 1005.5
20260506220704 51 0 0.0 0.0 0.00 0.00 0.00 92 1005.5
20260506220604 52 0 0.0 0.0 0.00 0.00 0.00 92 1005.5
20260506220404 52 0 0.0 0.0 0.00 0.00 0.00 92 1005.6
20260506220303 52 0 0.0 0.0 0.00 0.00 0.00 92 1005.5
20260506220203 52 0 0.0 0.0 0.00 0.00 0.00 92 1005.5
20260506220050 52 0 0.0 0.0 0.00 0.00 0.00 92 1005.6
20260506215903 52 0 0.0 0.0 0.00 0.00 0.00 92 1005.5
20260506215803 52 0 0.0 0.0 0.00 0.00 0.00 92 1005.6
20260506215703 52 0 0.0 0.0 0.00 0.00 0.00 91 1005.6
20260506215603 52 0 0.0 0.0 0.00 0.00 0.00 91 1005.4
20260506215504 52 0 0.0 0.0 0.00 0.00 0.00 91 1005.5
20260506215404 52 0 0.0 0.0 0.00 0.00 0.00 91 1005.5
20260506215306 52 0 0.0 0.0 0.00 0.00 0.00 91 1005.6
20260506215204 52 0 0.0 0.0 0.00 0.00 0.00 91 1005.6
20260506215104 52 0 0.0 0.0 0.00 0.00 0.00 91 1005.6
20260506215004 52 0 0.0 0.0 0.00 0.00 0.00 91 1005.5
20260506214904 52 0 0.0 0.0 0.00 0.00 0.00 91 1005.5
20260506214804 52 0 0.0 0.0 0.00 0.00 0.00 91 1005.6
20260506214704 52 0 0.0 0.0 0.00 0.00 0.00 91 1005.5
20260506214604 52 0 0.0 0.0 0.00 0.00 0.00 91 1005.5
20260506214504 52 90 0.0 1.7 0.00 0.00 0.00 91 1005.4
20260506214403 52 181 0.0 1.7 0.00 0.00 0.00 91 1005.5
20260506214304 52 181 0.0 1.7 0.00 0.00 0.00 91 1005.5
20260506214204 52 181 0.0 1.7 0.00 0.00 0.00 91 1005.5
20260506214103 52 181 0.0 1.7 0.00 0.00 0.00 91 1005.5
20260506214003 52 181 0.0 1.7 0.00 0.00 0.00 91 1005.5
20260506213903 52 181 0.0 1.7 0.00 0.00 0.00 91 1005.6
20260506213803 52 181 0.0 1.7 0.00 0.00 0.00 91 1005.5
20260506213703 52 181 0.0 1.7 0.00 0.00 0.00 91 1005.4
20260506213603 52 181 0.0 1.7 0.00 0.00 0.00 91 1005.5
20260506213503 52 219 0.0 1.7 0.00 0.00 0.00 91 1005.6
20260506213403 51 0 0.0 0.0 0.00 0.00 0.00 91 1005.5
20260506213303 51 0 0.0 0.0 0.00 0.00 0.00 90 1005.6
20260506213203 51 0 0.0 0.0 0.00 0.00 0.00 90 1005.5
20260506213103 51 0 0.0 0.0 0.00 0.00 0.00 90 1005.5
20260506213004 51 0 0.0 0.0 0.00 0.00 0.00 90 1005.6
20260506212904 51 0 0.0 0.0 0.00 0.00 0.00 90 1005.6
20260506212804 51 0 0.0 0.0 0.00 0.00 0.00 90 1005.6
20260506212704 51 0 0.0 0.0 0.00 0.00 0.00 90 1005.5
20260506212604 51 0 0.0 0.0 0.00 0.00 0.00 90 1005.7
20260506212504 51 0 0.0 0.0 0.00 0.00 0.00 90 1005.5
20260506212404 51 0 0.0 0.0 0.00 0.00 0.00 90 1005.5
20260506212306 51 0 0.0 0.0 0.00 0.00 0.00 90 1005.4
20260506212204 51 0 0.0 0.0 0.00 0.00 0.00 90 1005.5
20260506212103 51 0 0.0 0.0 0.00 0.00 0.00 90 1005.5
20260506212004 51 0 0.0 0.0 0.00 0.00 0.00 90 1005.5
20260506211704 51 0 0.0 0.0 0.00 0.00 0.00 90 1005.5
20260506211604 51 0 0.0 0.0 0.00 0.00 0.00 90 1005.6
20260506211504 51 0 0.0 0.0 0.00 0.00 0.00 90 1005.4
20260506211404 52 0 0.0 0.0 0.00 0.00 0.00 90 1005.4
20260506211304 52 0 0.0 0.0 0.00 0.00 0.00 90 1005.5
20260506211204 52 0 0.0 0.0 0.00 0.00 0.00 90 1005.6
20260506211104 52 0 0.0 0.0 0.00 0.00 0.00 90 1005.6
20260506211004 52 0 0.0 0.0 0.00 0.00 0.00 90 1005.7
20260506210904 52 0 0.0 0.0 0.00 0.00 0.00 90 1005.5
20260506210803 52 0 0.0 0.0 0.00 0.00 0.00 90 1005.6
20260506210703 52 0 0.0 0.0 0.00 0.00 0.00 90 1005.7
20260506210603 52 0 0.0 0.0 0.00 0.00 0.00 90 1005.6
20260506210503 52 0 0.0 0.0 0.00 0.00 0.00 90 1005.5
20260506210403 52 0 0.0 0.0 0.00 0.00 0.00 90 1005.7
20260506210303 52 0 0.0 0.0 0.00 0.00 0.00 90 1005.6
20260506210203 52 0 0.0 0.0 0.00 0.00 0.00 90 1005.6
20260506210103 52 0 0.0 0.0 0.00 0.00 0.00 90 1005.4
20260506210003 53 0 0.0 0.0 0.00 0.00 0.00 90 1005.6
20260506205903 53 0 0.0 0.0 0.00 0.00 0.00 90 1005.4
20260506205803 53 0 0.0 0.0 0.00 0.00 0.00 90 1005.6
20260506205704 53 0 0.0 0.0 0.00 0.00 0.00 90 1005.7
20260506205604 53 0 0.0 0.0 0.00 0.00 0.00 90 1005.5
20260506205504 53 0 0.0 0.0 0.00 0.00 0.00 90 1005.5
20260506205404 53 0 0.0 0.0 0.00 0.00 0.00 90 1005.5
20260506205306 53 0 0.0 0.0 0.00 0.00 0.00 90 1005.5
20260506205204 53 0 0.0 0.0 0.00 0.00 0.00 90 1005.6
20260506205104 53 0 0.0 0.0 0.00 0.00 0.00 90 1005.6
20260506205004 53 0 0.0 0.0 0.00 0.00 0.00 90 1005.5
20260506204904 53 0 0.0 0.0 0.00 0.00 0.00 90 1005.6
20260506204804 53 0 0.0 0.0 0.00 0.00 0.00 90 1005.7
20260506204704 53 0 0.0 0.0 0.00 0.00 0.00 90 1005.4
20260506204604 53 0 0.0 0.0 0.00 0.00 0.00 90 1005.5
20260506204504 53 0 0.0 0.0 0.00 0.00 0.00 90 1005.6
20260506204404 53 0 0.0 0.0 0.00 0.00 0.00 90 1005.5
20260506204203 53 0 0.0 0.0 0.00 0.00 0.00 89 1005.6
20260506204003 53 0 0.0 0.0 0.00 0.00 0.00 89 1005.6
20260506203903 53 0 0.0 0.0 0.00 0.00 0.00 89 1005.5
20260506203803 53 0 0.0 0.0 0.00 0.00 0.00 89 1005.5
20260506203703 53 0 0.0 0.0 0.00 0.00 0.00 89 1005.5
20260506203603 53 0 0.0 0.0 0.00 0.00 0.00 89 1005.5
20260506203503 53 0 0.0 0.0 0.00 0.00 0.00 89 1005.6
20260506203403 53 0 0.0 0.0 0.00 0.00 0.00 89 1005.6
20260506203304 54 0 0.0 0.0 0.00 0.00 0.00 90 1005.6
20260506203204 54 0 0.0 0.0 0.00 0.00 0.00 90 1005.6
20260506203107 54 0 0.0 0.0 0.00 0.00 0.00 90 1005.6
20260506203004 54 0 0.0 0.0 0.00 0.00 0.00 90 1005.7
20260506202904 54 0 0.0 0.0 0.00 0.00 0.00 90 1005.5
20260506202804 54 0 0.0 0.0 0.00 0.00 0.00 90 1005.5
20260506202705 54 0 0.0 0.0 0.00 0.00 0.00 90 1005.5
20260506202605 54 0 0.0 0.0 0.00 0.00 0.00 90 1005.5
20260506202504 54 0 0.0 0.0 0.00 0.00 0.00 90 1005.5
20260506202404 54 0 0.0 0.0 0.00 0.00 0.00 90 1005.4
20260506202306 54 0 0.0 0.0 0.00 0.00 0.00 90 1005.6
20260506202203 54 0 0.0 0.0 0.00 0.00 0.00 90 1005.5
20260506202104 54 0 0.0 0.0 0.00 0.00 0.00 90 1005.5
20260506202004 54 0 0.0 0.0 0.00 0.00 0.00 90 1005.5
20260506200704 55 0 0.0 0.0 0.00 7.39 7.39 32 1005.4
20260506200104 55 0 0.0 0.0 0.00 7.39 7.39 32 1005.4
20260506200004 55 0 0.0 0.0 0.00 7.39 7.39 32 1005.4
20260506195603 56 0 0.0 0.0 0.00 7.39 7.39 32 1005.4
20260506194204 56 0 0.0 0.0 0.00 7.39 7.39 32 1005.3
20260506194105 56 0 0.0 0.0 0.00 7.39 7.39 32 1005.3
20260506193605 56 0 0.0 0.0 0.00 7.39 7.39 32 1005.4
20260506193304 56 0 0.0 0.0 0.00 0.00 7.39 32 1005.4
20260506193205 56 0 0.0 0.0 0.00 0.00 7.39 85 1005.4
20260506193104 56 0 0.0 0.0 0.00 0.00 7.39 32 1005.4
20260506193005 56 0 0.0 0.0 0.00 0.00 7.39 85 1005.4
20260506192703 56 300 0.0 1.7 0.00 0.00 7.39 85 1005.4
20260506192604 56 300 0.0 1.7 0.00 0.00 7.39 85 1005.4
20260506192503 56 302 0.0 1.7 0.00 1.47 7.39 32 1005.4
20260506192404 56 303 0.9 1.7 0.00 7.39 7.39 85 1005.4
20260506191703 57 300 0.9 1.7 0.00 0.00 0.00 85 1005.2
20260506191603 57 304 0.9 1.7 0.00 0.00 0.00 85 1005.2
20260506191503 57 305 0.9 1.7 0.00 0.00 0.00 85 1005.2
20260506191403 57 306 0.9 1.7 0.00 0.00 0.00 84 1005.2
20260506191304 57 306 0.9 1.7 0.00 0.00 0.00 84 1005.2
20260506191205 57 302 0.9 1.7 0.00 0.00 0.00 84 1005.2
20260506191104 57 287 0.9 1.7 0.00 0.00 0.00 84 1005.2
20260506191004 57 270 0.0 1.7 0.00 0.00 0.00 84 1005.0
20260506190904 57 298 0.0 1.7 0.00 0.00 0.00 84 1005.0
20260506190804 57 315 0.0 1.7 0.00 0.00 0.00 84 1005.2
20260506190704 57 0 0.0 0.0 0.00 0.00 0.00 84 1005.2
20260506190604 57 0 0.0 0.0 0.00 0.00 0.00 84 1005.0
20260506190504 57 0 0.0 0.0 0.00 0.00 0.00 84 1005.0
20260506190404 57 0 0.0 0.0 0.00 0.00 0.00 84 1005.1
20260506190304 57 0 0.0 0.0 0.00 0.00 0.00 84 1005.0
20260506190204 57 0 0.0 0.0 0.00 0.00 0.00 84 1005.0
20260506190103 57 180 0.0 0.9 0.00 0.00 0.00 84 1005.0
20260506190004 57 148 0.0 1.7 0.00 0.00 0.00 84 1005.1
20260506185903 57 136 0.0 1.7 0.00 0.00 0.00 83 1005.0
20260506185803 57 73 0.0 1.7 0.00 0.00 0.00 83 1005.0
20260506185705 57 8 0.9 1.7 0.00 0.00 0.00 83 1005.0
20260506185603 57 304 0.9 1.7 0.00 0.00 0.00 83 1004.9
20260506185503 57 330 0.9 1.7 0.00 0.00 0.00 83 1005.0
20260506185403 57 312 0.9 1.7 0.00 0.00 0.00 83 1005.0
20260506185306 57 297 0.9 1.7 0.00 0.00 0.00 83 1004.8
20260506185203 57 296 0.9 1.7 0.00 0.00 0.00 83 1004.8
20260506185104 57 284 0.9 1.7 0.00 0.00 0.00 83 1004.8
20260506185004 57 284 0.9 1.7 0.00 0.00 0.00 83 1004.8
20260506184905 57 257 1.7 1.7 0.00 0.00 0.00 83 1004.8
20260506184804 57 240 0.9 1.7 0.00 0.00 0.00 83 1004.8
20260506184704 57 224 1.7 1.7 0.00 0.00 0.00 83 1004.8
20260506184604 57 228 0.9 1.7 0.00 0.00 0.00 83 1004.8
20260506184505 57 223 0.9 1.7 0.00 0.00 0.00 83 1004.9
20260506184404 57 228 0.9 1.7 0.00 0.00 0.00 83 1004.9
20260506184303 57 236 0.9 1.7 0.00 0.00 0.00 82 1004.7
20260506184203 57 246 1.7 1.7 0.00 0.00 0.00 82 1004.8
20260506184103 57 267 1.7 1.7 0.00 0.00 0.00 82 1004.8
20260506184003 57 281 1.7 1.7 0.00 0.00 0.00 82 1004.8
20260506183903 57 291 1.7 2.6 0.00 0.00 0.00 82 1004.7
20260506183803 58 301 1.7 2.6 0.00 0.00 0.00 82 1004.6
20260506183704 58 310 1.7 2.6 0.00 0.00 0.00 82 1004.7
20260506183603 58 308 1.7 2.6 0.00 0.00 0.00 82 1004.7
20260506183503 58 313 1.7 2.6 0.00 0.00 0.00 82 1004.7
20260506183404 58 313 1.7 2.6 0.00 0.00 0.00 82 1004.7
20260506183304 58 315 1.7 2.6 0.00 0.00 0.00 82 1004.7
20260506183204 58 315 1.7 2.6 0.00 0.00 0.00 82 1004.7
20260506183104 58 312 1.7 2.6 0.00 0.00 0.00 81 1004.7
20260506183005 58 309 1.7 2.6 0.00 0.00 0.00 81 1004.7
20260506182904 58 306 1.7 2.6 0.00 0.00 0.00 81 1004.7
20260506182804 58 288 1.7 1.7 0.00 0.00 0.00 81 1004.7
20260506182704 58 265 1.7 2.6 0.00 0.00 0.00 81 1004.6
20260506182604 58 282 1.7 2.6 0.00 0.00 0.00 81 1004.6
20260506182504 58 269 1.7 2.6 0.00 0.00 0.00 81 1004.6
20260506182404 58 279 1.7 2.6 0.00 0.00 0.00 81 1004.6
20260506182306 58 279 1.7 2.6 0.00 0.00 0.00 81 1004.6
20260506182203 58 256 1.7 2.6 0.00 0.00 0.00 81 1004.6
20260506182103 58 244 1.7 2.6 0.00 0.00 0.00 81 1004.6
20260506182004 58 251 1.7 2.6 0.00 0.00 0.00 81 1004.6
20260506181703 58 260 1.7 2.6 0.00 0.00 0.00 80 1004.6
20260506181603 58 261 1.7 2.6 0.00 0.00 0.00 80 1004.5
20260506181510 58 255 1.7 2.6 0.00 0.00 0.00 80 1004.5
20260506181403 58 249 1.7 2.6 0.00 0.00 0.00 80 1004.5
20260506181303 58 242 1.7 2.6 0.00 0.00 0.00 80 1004.5
20260506181203 58 237 1.7 2.6 0.00 0.00 0.00 80 1004.5
20260506181103 58 238 1.7 2.6 0.00 0.00 0.00 80 1004.4
20260506181003 58 233 2.6 2.6 0.00 0.00 0.00 79 1004.4
20260506180903 58 233 2.6 2.6 0.00 0.00 0.00 79 1004.6
20260506180803 58 236 2.6 2.6 0.00 0.00 0.00 79 1004.4
20260506180703 58 234 2.6 2.6 0.00 0.00 0.00 79 1004.4
20260506180604 59 231 1.7 2.6 0.00 0.00 0.00 79 1004.4
20260506180504 59 232 1.7 2.6 0.00 0.00 0.00 77 1004.5
20260506180404 59 233 1.7 2.6 0.00 0.00 0.00 77 1004.4
20260506180304 59 236 1.7 2.6 0.00 0.00 0.00 77 1004.5
20260506180204 59 237 0.9 2.6 0.00 0.00 0.00 77 1004.5
20260506180105 59 236 0.9 2.6 0.00 0.00 0.00 77 1004.5
20260506180005 59 237 0.9 2.6 0.00 0.00 0.00 77 1004.5
20260506175903 59 239 0.9 2.6 0.00 0.00 0.00 77 1004.6
20260506175803 59 233 0.9 3.5 0.00 0.00 0.00 77 1004.5
20260506175704 59 239 0.9 3.5 0.00 0.00 0.00 77 1004.6
20260506175603 59 253 1.7 3.5 0.00 0.00 0.00 77 1004.4
20260506175503 60 262 1.7 3.5 0.00 0.00 0.00 76 1004.4
20260506175403 60 267 1.7 3.5 0.00 0.00 0.00 76 1004.5
20260506175306 60 266 1.7 3.5 0.00 0.00 0.00 76 1004.4
20260506175203 60 269 1.7 3.5 0.00 0.00 0.00 76 1004.4
20260506175103 60 282 0.9 3.5 0.00 0.00 0.00 76 1004.4
20260506175004 60 297 0.9 3.5 0.00 0.00 0.00 75 1004.3